Observation data for Vigo Park on 12/09/2018      Previous  Date       Current Mesonet Observations  Soil Data  Daily Summary Page  Observations in Plain Language
KVP1 090600Z 29004KT M06/M07 A3031 RMK A01 T10591067  RH  094%=      5-min Rain = 0
KVP1 090601Z 29005KT M06/M07 A3031 RMK A01 T10581066  RH  094%=      5-min Rain = 0
KVP1 090602Z 29004KT M06/M07 A3031 RMK A01 T10581066  RH  094%=      5-min Rain = 0
KVP1 090603Z 29005KT M06/M07 A3031 RMK A01 T10581065  RH  095%=      5-min Rain = 0
KVP1 090604Z 28005KT M06/M06 A3031 RMK A01 T10571064  RH  095%=      5-min Rain = 0
KVP1 090605Z 28005KT M06/M06 A3031 RMK A01 T10571064  RH  095%=      5-min Rain = 0
KVP1 090606Z 28005KT M06/M06 A3031 RMK A01 T10571064  RH  095%=      5-min Rain = 0
KVP1 090607Z 28005KT M06/M07 A3031 RMK A01 T10581066  RH  095%=      5-min Rain = 0
KVP1 090608Z 28005KT M06/M07 A3031 RMK A01 T10591066  RH  094%=      5-min Rain = 0
KVP1 090609Z 28005KT M06/M07 A303 RMK A01 T10591066  RH  095%=      5-min Rain = 0
KVP1 090610Z 29005KT M06/M07 A303 RMK A01 T10591066  RH  095%=      5-min Rain = 0
KVP1 090611Z 29005KT M06/M07 A303 RMK A01 T10581065  RH  095%=      5-min Rain = 0
KVP1 090612Z 29006KT M06/M07 A3031 RMK A01 T10581065  RH  095%=      5-min Rain = 0
KVP1 090613Z 28006KT M06/M07 A3031 RMK A01 T10591066  RH  095%=      5-min Rain = 0
KVP1 090614Z 28006KT M06/M07 A3031 RMK A01 T10591067  RH  095%=      5-min Rain = 0
KVP1 090615Z 28005KT M06/M07 A3031 RMK A01 T10591067  RH  095%=      5-min Rain = 0
KVP1 090616Z 28005KT M06/M07 A3031 RMK A01 T10601067  RH  095%=      5-min Rain = 0
KVP1 090617Z 28005KT M06/M07 A303 RMK A01 T10601067  RH  095%=      5-min Rain = 0
KVP1 090618Z 29005KT M06/M07 A303 RMK A01 T10601067  RH  095%=      5-min Rain = 0
KVP1 090619Z 29005KT M06/M07 A303 RMK A01 T10591066  RH  095%=      5-min Rain = 0
KVP1 090620Z 29005KT M06/M07 A303 RMK A01 T10591066  RH  095%=      5-min Rain = 0
KVP1 090621Z 29005KT M06/M07 A303 RMK A01 T10591066  RH  095%=      5-min Rain = 0
KVP1 090622Z 29004KT M06/M07 A303 RMK A01 T10601067  RH  095%=      5-min Rain = 0
KVP1 090623Z 29004KT M06/M07 A303 RMK A01 T10601067  RH  095%=      5-min Rain = 0
KVP1 090624Z 29004KT M06/M07 A303 RMK A01 T10601067  RH  095%=      5-min Rain = 0
KVP1 090625Z 29004KT M06/M07 A303 RMK A01 T10591066  RH  095%=      5-min Rain = 0
KVP1 090626Z 29004KT M06/M07 A303 RMK A01 T10591065  RH  095%=      5-min Rain = 0
KVP1 090627Z 29004KT M06/M06 A303 RMK A01 T10581063  RH  096%=      5-min Rain = 0
KVP1 090628Z 29005KT M06/M06 A303 RMK A01 T10561062  RH  096%=      5-min Rain = 0
KVP1 090629Z 29005KT M06/M06 A303 RMK A01 T10561061  RH  096%=      5-min Rain = 0
KVP1 090630Z 29005KT M06/M06 A303 RMK A01 T10551061  RH  096%=      5-min Rain = 0
KVP1 090631Z 30005KT M06/M06 A303 RMK A01 T10551061  RH  096%=      5-min Rain = 0
KVP1 090632Z 30005KT M06/M06 A303 RMK A01 T10561062  RH  096%=      5-min Rain = 0
KVP1 090633Z 30005KT M06/M06 A303 RMK A01 T10571063  RH  095%=      5-min Rain = 0
KVP1 090634Z 29005KT M06/M06 A303 RMK A01 T10581064  RH  095%=      5-min Rain = 0
KVP1 090635Z 29005KT M06/M06 A303 RMK A01 T10581064  RH  095%=      5-min Rain = 0
KVP1 090636Z 29005KT M06/M06 A3031 RMK A01 T10581064  RH  095%=      5-min Rain = 0
KVP1 090637Z 29005KT M06/M06 A3031 RMK A01 T10581064  RH  095%=      5-min Rain = 0
KVP1 090638Z 29005KT M06/M07 A303 RMK A01 T10581065  RH  095%=      5-min Rain = 0
KVP1 090639Z 29005KT M06/M07 A303 RMK A01 T10581065  RH  095%=      5-min Rain = 0
KVP1 090640Z 29004KT M06/M07 A303 RMK A01 T10591066  RH  095%=      5-min Rain = 0
KVP1 090641Z 30005KT M06/M07 A303 RMK A01 T10591065  RH  095%=      5-min Rain = 0
KVP1 090642Z 29005KT M06/M06 A303 RMK A01 T10581064  RH  095%=      5-min Rain = 0
KVP1 090643Z 29005KT M06/M06 A303 RMK A01 T10581064  RH  095%=      5-min Rain = 0
KVP1 090644Z 29005KT M06/M06 A303 RMK A01 T10571063  RH  095%=      5-min Rain = 0
KVP1 090645Z 29005KT M06/M06 A303 RMK A01 T10571063  RH  096%=      5-min Rain = 0
KVP1 090646Z 29005KT M06/M06 A303 RMK A01 T10571063  RH  095%=      5-min Rain = 0
KVP1 090647Z 29006KT M06/M06 A303 RMK A01 T10571064  RH  095%=      5-min Rain = 0
KVP1 090648Z 29005KT M06/M06 A303 RMK A01 T10571064  RH  095%=      5-min Rain = 0
KVP1 090649Z 29005KT M06/M06 A303 RMK A01 T10571064  RH  095%=      5-min Rain = 0
KVP1 090650Z 29005KT M06/M07 A303 RMK A01 T10581065  RH  095%=      5-min Rain = 0
KVP1 090651Z 30005KT M06/M06 A303 RMK A01 T10571064  RH  095%=      5-min Rain = 0
KVP1 090652Z 29004KT M06/M06 A303 RMK A01 T10571063  RH  095%=      5-min Rain = 0
KVP1 090653Z 29005KT M06/M06 A303 RMK A01 T10561062  RH  096%=      5-min Rain = 0
KVP1 090654Z 30005KT M06/M06 A303 RMK A01 T10561062  RH  096%=      5-min Rain = 0
KVP1 090655Z 30005KT M06/M06 A303 RMK A01 T10561062  RH  096%=      5-min Rain = 0
KVP1 090656Z 30005KT M06/M06 A303 RMK A01 T10561062  RH  095%=      5-min Rain = 0
KVP1 090657Z 30005KT M06/M06 A303 RMK A01 T10561062  RH  095%=      5-min Rain = 0
KVP1 090658Z 30005KT M06/M06 A303 RMK A01 T10561063  RH  095%=      5-min Rain = 0
KVP1 090659Z 30005KT M06/M06 A303 RMK A01 T10571064  RH  095%=      5-min Rain = 0
KVP1 090700Z 30005KT M06/M06 A303 RMK A01 T10571064  RH  095%=      5-min Rain = 0
KVP1 090701Z 29005KT M06/M06 A303 RMK A01 T10561063  RH  095%=      5-min Rain = 0
KVP1 090702Z 29005KT M06/M06 A303 RMK A01 T10561063  RH  095%=      5-min Rain = 0
KVP1 090703Z 29005KT M06/M06 A303 RMK A01 T10571064  RH  095%=      5-min Rain = 0
KVP1 090704Z 29005KT M06/M07 A303 RMK A01 T10571065  RH  094%=      5-min Rain = 0
KVP1 090705Z 29005KT M06/M07 A303 RMK A01 T10581066  RH  094%=      5-min Rain = 0
KVP1 090706Z 29005KT M06/M07 A303 RMK A01 T10591067  RH  094%=      5-min Rain = 0
KVP1 090707Z 30005KT M06/M07 A303 RMK A01 T10591067  RH  094%=      5-min Rain = 0
KVP1 090708Z 30005KT M06/M07 A303 RMK A01 T10591067  RH  094%=      5-min Rain = 0
KVP1 090709Z 30005KT M06/M07 A303 RMK A01 T10581066  RH  095%=      5-min Rain = 0
KVP1 090710Z 30005KT M06/M07 A303 RMK A01 T10581065  RH  095%=      5-min Rain = 0
KVP1 090711Z 30005KT M06/M07 A303 RMK A01 T10581065  RH  095%=      5-min Rain = 0
KVP1 090712Z 30005KT M06/M07 A303 RMK A01 T10581065  RH  095%=      5-min Rain = 0
KVP1 090713Z 30005KT M06/M07 A303 RMK A01 T10581066  RH  094%=      5-min Rain = 0
KVP1 090714Z 30005KT M06/M07 A303 RMK A01 T10591066  RH  094%=      5-min Rain = 0
KVP1 090715Z 30005KT M06/M07 A303 RMK A01 T10591067  RH  094%=      5-min Rain = 0
KVP1 090716Z 30006KT M06/M07 A303 RMK A01 T10591068  RH  094%=      5-min Rain = 0
KVP1 090717Z 31005KT M06/M07 A303 RMK A01 T10591068  RH  094%=      5-min Rain = 0
KVP1 090718Z 31005KT M06/M07 A303 RMK A01 T10601068  RH  094%=      5-min Rain = 0
KVP1 090719Z 31005KT M06/M07 A303 RMK A01 T10601069  RH  094%=      5-min Rain = 0
KVP1 090720Z 31005KT M06/M07 A303 RMK A01 T10601069  RH  094%=      5-min Rain = 0
KVP1 090721Z 30005KT M06/M07 A303 RMK A01 T10601069  RH  094%=      5-min Rain = 0
KVP1 090722Z 30005KT M06/M07 A303 RMK A01 T10611069  RH  094%=      5-min Rain = 0
KVP1 090723Z 31005KT M06/M07 A3029 RMK A01 T10611069  RH  094%=      5-min Rain = 0
KVP1 090724Z 31005KT M06/M07 A3029 RMK A01 T10611069  RH  094%=      5-min Rain = 0
KVP1 090725Z 31005KT M06/M07 A3029 RMK A01 T10611069  RH  094%=      5-min Rain = 0
KVP1 090726Z 31005KT M06/M07 A3029 RMK A01 T10611070  RH  094%=      5-min Rain = 0
KVP1 090727Z 31005KT M06/M07 A3029 RMK A01 T10611070  RH  094%=      5-min Rain = 0
KVP1 090728Z 31005KT M06/M07 A3029 RMK A01 T10611069  RH  094%=      5-min Rain = 0
KVP1 090729Z 31005KT M06/M07 A3029 RMK A01 T10611069  RH  094%=      5-min Rain = 0
KVP1 090730Z 31005KT M06/M07 A3029 RMK A01 T10611069  RH  094%=      5-min Rain = 0
KVP1 090731Z 31005KT M06/M07 A3029 RMK A01 T10611070  RH  094%=      5-min Rain = 0
KVP1 090732Z 31005KT M06/M07 A3029 RMK A01 T10611070  RH  094%=      5-min Rain = 0
KVP1 090733Z 31005KT M06/M07 A3029 RMK A01 T10611070  RH  094%=      5-min Rain = 0
KVP1 090734Z 31005KT M06/M07 A3029 RMK A01 T10611069  RH  094%=      5-min Rain = 0
KVP1 090735Z 31005KT M06/M07 A3029 RMK A01 T10601068  RH  094%=      5-min Rain = 0
KVP1 090736Z 31006KT M06/M07 A3029 RMK A01 T10601068  RH  094%=      5-min Rain = 0
KVP1 090737Z 31005KT M06/M07 A3029 RMK A01 T10601068  RH  094%=      5-min Rain = 0
KVP1 090738Z 31005KT M06/M07 A3029 RMK A01 T10601068  RH  094%=      5-min Rain = 0
KVP1 090739Z 31005KT M06/M07 A3029 RMK A01 T10601068  RH  094%=      5-min Rain = 0
KVP1 090740Z 31005KT M06/M07 A3029 RMK A01 T10601069  RH  094%=      5-min Rain = 0
KVP1 090741Z 31005KT M06/M07 A3029 RMK A01 T10601069  RH  094%=      5-min Rain = 0
KVP1 090742Z 31005KT M06/M07 A3029 RMK A01 T10601069  RH  094%=      5-min Rain = 0
KVP1 090743Z 31005KT M06/M07 A3029 RMK A01 T10601069  RH  094%=      5-min Rain = 0
KVP1 090744Z 31005KT M06/M07 A3029 RMK A01 T10601069  RH  094%=      5-min Rain = 0
KVP1 090745Z 31005KT M06/M07 A3029 RMK A01 T10601069  RH  094%=      5-min Rain = 0
KVP1 090746Z 31005KT M06/M07 A3029 RMK A01 T10601069  RH  094%=      5-min Rain = 0
KVP1 090747Z 31005KT M06/M07 A3029 RMK A01 T10601069  RH  094%=      5-min Rain = 0
KVP1 090748Z 31005KT M06/M07 A3029 RMK A01 T10601069  RH  094%=      5-min Rain = 0
KVP1 090749Z 31005KT M06/M07 A3029 RMK A01 T10601069  RH  094%=      5-min Rain = 0
KVP1 090750Z 31005KT M06/M07 A3029 RMK A01 T10601069  RH  094%=      5-min Rain = 0
KVP1 090751Z 31004KT M06/M07 A3029 RMK A01 T10611069  RH  094%=      5-min Rain = 0
KVP1 090752Z 31004KT M06/M07 A3029 RMK A01 T10611070  RH  093%=      5-min Rain = 0
KVP1 090753Z 31004KT M06/M07 A3029 RMK A01 T10621071  RH  093%=      5-min Rain = 0
KVP1 090754Z 31004KT M06/M07 A3029 RMK A01 T10621071  RH  093%=      5-min Rain = 0
KVP1 090755Z 31005KT M06/M07 A3029 RMK A01 T10611069  RH  094%=      5-min Rain = 0
KVP1 090756Z 31005KT M06/M07 A3029 RMK A01 T10611069  RH  094%=      5-min Rain = 0
KVP1 090757Z 31005KT M06/M07 A3029 RMK A01 T10611069  RH  094%=      5-min Rain = 0
KVP1 090758Z 31005KT M06/M07 A3029 RMK A01 T10611069  RH  094%=      5-min Rain = 0
KVP1 090759Z 31005KT M06/M07 A3029 RMK A01 T10611069  RH  094%=      5-min Rain = 0
KVP1 090800Z 31005KT M06/M07 A3029 RMK A01 T10611069  RH  094%=      5-min Rain = 0
KVP1 090801Z 31005KT M06/M07 A3029 RMK A01 T10611069  RH  094%=      5-min Rain = 0
KVP1 090802Z 31004KT M06/M07 A3029 RMK A01 T10601068  RH  094%=      5-min Rain = 0
KVP1 090803Z 31005KT M06/M07 A3029 RMK A01 T10601069  RH  094%=      5-min Rain = 0
KVP1 090804Z 31005KT M06/M07 A3029 RMK A01 T10601068  RH  094%=      5-min Rain = 0
KVP1 090805Z 31005KT M06/M07 A3029 RMK A01 T10601068  RH  094%=      5-min Rain = 0
KVP1 090806Z 31005KT M06/M07 A3029 RMK A01 T10601068  RH  094%=      5-min Rain = 0
KVP1 090807Z 31005KT M06/M07 A3029 RMK A01 T10601068  RH  094%=      5-min Rain = 0
KVP1 090808Z 31005KT M06/M07 A3029 RMK A01 T10601068  RH  094%=      5-min Rain = 0
KVP1 090809Z 31005KT M06/M07 A3029 RMK A01 T10601068  RH  094%=      5-min Rain = 0
KVP1 090810Z 31005KT M06/M07 A3029 RMK A01 T10601068  RH  094%=      5-min Rain = 0
KVP1 090811Z 31005KT M06/M07 A3029 RMK A01 T10601068  RH  094%=      5-min Rain = 0
KVP1 090812Z 31005KT M06/M07 A3029 RMK A01 T10601068  RH  094%=      5-min Rain = 0
KVP1 090813Z 31005KT M06/M07 A3029 RMK A01 T10601068  RH  094%=      5-min Rain = 0
KVP1 090814Z 31005KT M06/M07 A303 RMK A01 T10601068  RH  094%=      5-min Rain = 0
KVP1 090815Z 31005KT M06/M07 A303 RMK A01 T10591067  RH  094%=      5-min Rain = 0
KVP1 090816Z 31005KT M06/M07 A303 RMK A01 T10591067  RH  094%=      5-min Rain = 0
KVP1 090817Z 31005KT M06/M07 A303 RMK A01 T10591066  RH  095%=      5-min Rain = 0
KVP1 090818Z 31005KT M06/M07 A303 RMK A01 T10591067  RH  094%=      5-min Rain = 0
KVP1 090819Z 31005KT M06/M07 A303 RMK A01 T10591067  RH  094%=      5-min Rain = 0
KVP1 090820Z 31005KT M06/M07 A303 RMK A01 T10591067  RH  094%=      5-min Rain = 0
KVP1 090821Z 31005KT M06/M07 A3029 RMK A01 T10591067  RH  094%=      5-min Rain = 0
KVP1 090822Z 31005KT M06/M07 A3029 RMK A01 T10591067  RH  094%=      5-min Rain = 0
KVP1 090823Z 31005KT M06/M07 A3029 RMK A01 T10591067  RH  094%=      5-min Rain = 0
KVP1 090824Z 31005KT M06/M07 A303 RMK A01 T10591067  RH  094%=      5-min Rain = 0
KVP1 090825Z 31005KT M06/M07 A303 RMK A01 T10591067  RH  094%=      5-min Rain = 0
KVP1 090826Z 31005KT M06/M07 A303 RMK A01 T10601068  RH  094%=      5-min Rain = 0
KVP1 090827Z 31005KT M06/M07 A303 RMK A01 T10601068  RH  094%=      5-min Rain = 0
KVP1 090828Z 31005KT M06/M07 A303 RMK A01 T10601068  RH  094%=      5-min Rain = 0
KVP1 090829Z 31005KT M06/M07 A303 RMK A01 T10601068  RH  094%=      5-min Rain = 0
KVP1 090830Z 32005KT M06/M07 A303 RMK A01 T10601068  RH  094%=      5-min Rain = 0
KVP1 090831Z 32005KT M06/M07 A303 RMK A01 T10611069  RH  094%=      5-min Rain = 0
KVP1 090832Z 32005KT M06/M07 A303 RMK A01 T10611069  RH  094%=      5-min Rain = 0
KVP1 090833Z 31005KT M06/M07 A303 RMK A01 T10611069  RH  094%=      5-min Rain = 0
KVP1 090834Z 31005KT M06/M07 A303 RMK A01 T10611069  RH  094%=      5-min Rain = 0
KVP1 090835Z 31005KT M06/M07 A303 RMK A01 T10611069  RH  094%=      5-min Rain = 0
KVP1 090836Z 31005KT M06/M07 A303 RMK A01 T10611069  RH  094%=      5-min Rain = 0
KVP1 090837Z 31005KT M06/M07 A303 RMK A01 T10611069  RH  094%=      5-min Rain = 0
KVP1 090838Z 31005KT M06/M07 A303 RMK A01 T10611070  RH  094%=      5-min Rain = 0
KVP1 090839Z 32004KT M06/M07 A303 RMK A01 T10611070  RH  094%=      5-min Rain = 0
KVP1 090840Z 32005KT M06/M07 A303 RMK A01 T10611070  RH  094%=      5-min Rain = 0
KVP1 090841Z 32005KT M06/M07 A303 RMK A01 T10611070  RH  094%=      5-min Rain = 0
KVP1 090842Z 32004KT M06/M07 A303 RMK A01 T10611070  RH  094%=      5-min Rain = 0
KVP1 090843Z 32005KT M06/M07 A303 RMK A01 T10611069  RH  094%=      5-min Rain = 0
KVP1 090844Z 32004KT M06/M07 A303 RMK A01 T10611069  RH  094%=      5-min Rain = 0
KVP1 090845Z 32004KT M06/M07 A303 RMK A01 T10611069  RH  094%=      5-min Rain = 0
KVP1 090846Z 32004KT M06/M07 A3029 RMK A01 T10601069  RH  094%=      5-min Rain = 0
KVP1 090847Z 33004KT M06/M07 A3029 RMK A01 T10611069  RH  094%=      5-min Rain = 0
KVP1 090848Z 33004KT M06/M07 A3029 RMK A01 T10611069  RH  094%=      5-min Rain = 0
KVP1 090849Z 33004KT M06/M07 A3029 RMK A01 T10611069  RH  094%=      5-min Rain = 0
KVP1 090850Z 33004KT M06/M07 A3029 RMK A01 T10611069  RH  094%=      5-min Rain = 0
KVP1 090851Z 33004KT M06/M07 A303 RMK A01 T10611070  RH  094%=      5-min Rain = 0
KVP1 090852Z 33004KT M06/M07 A303 RMK A01 T10611070  RH  094%=      5-min Rain = 0
KVP1 090853Z 34004KT M06/M07 A303 RMK A01 T10621070  RH  094%=      5-min Rain = 0
KVP1 090854Z 34004KT M06/M07 A303 RMK A01 T10621071  RH  094%=      5-min Rain = 0
KVP1 090855Z 34005KT M06/M07 A303 RMK A01 T10621071  RH  094%=      5-min Rain = 0
KVP1 090856Z 34005KT M06/M07 A3029 RMK A01 T10621070  RH  094%=      5-min Rain = 0
KVP1 090857Z 34005KT M06/M07 A3029 RMK A01 T10611069  RH  094%=      5-min Rain = 0
KVP1 090858Z 34005KT M06/M07 A3029 RMK A01 T10611069  RH  094%=      5-min Rain = 0
KVP1 090859Z 34005KT M06/M07 A3029 RMK A01 T10611069  RH  094%=      5-min Rain = 0
KVP1 090900Z 34005KT M06/M07 A3029 RMK A01 T10601068  RH  094%=      5-min Rain = 0
KVP1 090901Z 34005KT M06/M07 A3029 RMK A01 T10601067  RH  094%=      5-min Rain = 0
KVP1 090902Z 33006KT M06/M07 A3029 RMK A01 T10591067  RH  094%=      5-min Rain = 0
KVP1 090903Z 33006KT M06/M07 A3029 RMK A01 T10591067  RH  094%=      5-min Rain = 0
KVP1 090904Z 33006KT M06/M07 A3029 RMK A01 T10591067  RH  094%=      5-min Rain = 0
KVP1 090905Z 33006KT M06/M07 A3029 RMK A01 T10591068  RH  094%=      5-min Rain = 0
KVP1 090906Z 34006KT M06/M07 A3029 RMK A01 T10601068  RH  094%=      5-min Rain = 0
KVP1 090907Z 33006KT M06/M07 A3029 RMK A01 T10601069  RH  093%=      5-min Rain = 0
KVP1 090908Z 33006KT M06/M07 A3029 RMK A01 T10611070  RH  093%=      5-min Rain = 0
KVP1 090909Z 33006KT M06/M07 A3029 RMK A01 T10611071  RH  093%=      5-min Rain = 0
KVP1 090910Z 34006KT M06/M07 A3029 RMK A01 T10621072  RH  093%=      5-min Rain = 0
KVP1 090911Z 34006KT M06/M07 A3029 RMK A01 T10621072  RH  093%=      5-min Rain = 0
KVP1 090912Z 34006KT M06/M07 A3029 RMK A01 T10621071  RH  093%=      5-min Rain = 0
KVP1 090913Z 34005KT M06/M07 A303 RMK A01 T10601069  RH  094%=      5-min Rain = 0
KVP1 090914Z 34006KT M06/M07 A303 RMK A01 T10601068  RH  094%=      5-min Rain = 0
KVP1 090915Z 33005KT M06/M07 A303 RMK A01 T10601069  RH  094%=      5-min Rain = 0
KVP1 090916Z 33005KT M06/M07 A303 RMK A01 T10611071  RH  093%=      5-min Rain = 0
KVP1 090917Z 33005KT M06/M07 A303 RMK A01 T10631074  RH  092%=      5-min Rain = 0
KVP1 090918Z 33006KT M06/M08 A303 RMK A01 T10641076  RH  092%=      5-min Rain = 0
KVP1 090919Z 33006KT M07/M08 A303 RMK A01 T10651077  RH  092%=      5-min Rain = 0
KVP1 090920Z 33006KT M07/M08 A303 RMK A01 T10651077  RH  092%=      5-min Rain = 0
KVP1 090921Z 33006KT M07/M08 A303 RMK A01 T10661077  RH  092%=      5-min Rain = 0
KVP1 090922Z 33006KT M07/M08 A303 RMK A01 T10671078  RH  092%=      5-min Rain = 0
KVP1 090923Z 33006KT M07/M08 A303 RMK A01 T10681079  RH  092%=      5-min Rain = 0
KVP1 090924Z 33006KT M07/M08 A303 RMK A01 T10681079  RH  092%=      5-min Rain = 0
KVP1 090925Z 33006KT M07/M08 A303 RMK A01 T10681079  RH  092%=      5-min Rain = 0
KVP1 090926Z 33006KT M07/M08 A303 RMK A01 T10691079  RH  092%=      5-min Rain = 0
KVP1 090927Z 33006KT M07/M08 A303 RMK A01 T10691080  RH  092%=      5-min Rain = 0
KVP1 090928Z 33006KT M07/M08 A303 RMK A01 T10691080  RH  092%=      5-min Rain = 0
KVP1 090929Z 33006KT M07/M08 A303 RMK A01 T10691079  RH  093%=      5-min Rain = 0
KVP1 090930Z 33006KT M07/M08 A303 RMK A01 T10691079  RH  093%=      5-min Rain = 0
KVP1 090931Z 33006KT M07/M08 A303 RMK A01 T10691079  RH  093%=      5-min Rain = 0
KVP1 090932Z 33006KT M07/M08 A303 RMK A01 T10691079  RH  093%=      5-min Rain = 0
KVP1 090933Z 33006KT M07/M08 A303 RMK A01 T10691079  RH  093%=      5-min Rain = 0
KVP1 090934Z 33005KT M07/M08 A303 RMK A01 T10691079  RH  093%=      5-min Rain = 0
KVP1 090935Z 33005KT M07/M08 A303 RMK A01 T10691078  RH  093%=      5-min Rain = 0
KVP1 090936Z 33005KT M07/M08 A303 RMK A01 T10691078  RH  093%=      5-min Rain = 0
KVP1 090937Z 33005KT M07/M08 A303 RMK A01 T10691078  RH  094%=      5-min Rain = 0
KVP1 090938Z 33005KT M07/M08 A303 RMK A01 T10681077  RH  094%=      5-min Rain = 0
KVP1 090939Z 33005KT M07/M08 A303 RMK A01 T10681076  RH  094%=      5-min Rain = 0
KVP1 090940Z 33005KT M07/M08 A303 RMK A01 T10681076  RH  094%=      5-min Rain = 0
KVP1 090941Z 33005KT M07/M08 A303 RMK A01 T10671076  RH  094%=      5-min Rain = 0
KVP1 090942Z 33005KT M07/M08 A303 RMK A01 T10671075  RH  094%=      5-min Rain = 0
KVP1 090943Z 33005KT M07/M07 A303 RMK A01 T10661074  RH  094%=      5-min Rain = 0
KVP1 090944Z 33005KT M07/M07 A303 RMK A01 T10661074  RH  094%=      5-min Rain = 0
KVP1 090945Z 33005KT M07/M07 A303 RMK A01 T10661074  RH  094%=      5-min Rain = 0
KVP1 090946Z 33005KT M07/M07 A303 RMK A01 T10651074  RH  094%=      5-min Rain = 0
KVP1 090947Z 33005KT M07/M07 A303 RMK A01 T10651074  RH  094%=      5-min Rain = 0
KVP1 090948Z 33006KT M07/M08 A303 RMK A01 T10661075  RH  093%=      5-min Rain = 0
KVP1 090949Z 33006KT M07/M08 A303 RMK A01 T10661076  RH  093%=      5-min Rain = 0
KVP1 090950Z 33005KT M07/M08 A303 RMK A01 T10671077  RH  093%=      5-min Rain = 0
KVP1 090951Z 33005KT M07/M08 A303 RMK A01 T10671078  RH  092%=      5-min Rain = 0
KVP1 090952Z 33005KT M07/M08 A303 RMK A01 T10681078  RH  092%=      5-min Rain = 0
KVP1 090953Z 33006KT M07/M08 A303 RMK A01 T10681078  RH  092%=      5-min Rain = 0
KVP1 090954Z 33006KT M07/M08 A303 RMK A01 T10681078  RH  093%=      5-min Rain = 0
KVP1 090955Z 33006KT M07/M08 A303 RMK A01 T10681078  RH  093%=      5-min Rain = 0
KVP1 090956Z 33006KT M07/M08 A303 RMK A01 T10681078  RH  093%=      5-min Rain = 0
KVP1 090957Z 33006KT M07/M08 A303 RMK A01 T10681078  RH  093%=      5-min Rain = 0
KVP1 090958Z 33006KT M07/M08 A303 RMK A01 T10681077  RH  093%=      5-min Rain = 0
KVP1 090959Z 33006KT M07/M08 A303 RMK A01 T10681077  RH  093%=      5-min Rain = 0
KVP1 091000Z 33006KT M07/M08 A303 RMK A01 T10671077  RH  093%=      5-min Rain = 0
KVP1 091001Z 33006KT M07/M08 A303 RMK A01 T10681077  RH  093%=      5-min Rain = 0
KVP1 091002Z 33006KT M07/M08 A303 RMK A01 T10671076  RH  093%=      5-min Rain = 0
KVP1 091003Z 33006KT M07/M08 A303 RMK A01 T10671076  RH  093%=      5-min Rain = 0
KVP1 091004Z 33005KT M07/M08 A303 RMK A01 T10671075  RH  094%=      5-min Rain = 0
KVP1 091005Z 33005KT M07/M08 A303 RMK A01 T10661075  RH  094%=      5-min Rain = 0
KVP1 091006Z 33005KT M07/M07 A303 RMK A01 T10661074  RH  094%=      5-min Rain = 0
KVP1 091007Z 33005KT M07/M07 A303 RMK A01 T10661074  RH  094%=      5-min Rain = 0
KVP1 091008Z 33005KT M07/M08 A303 RMK A01 T10661075  RH  094%=      5-min Rain = 0
KVP1 091009Z 33005KT M07/M08 A303 RMK A01 T10661075  RH  093%=      5-min Rain = 0
KVP1 091010Z 33005KT M07/M08 A303 RMK A01 T10661075  RH  093%=      5-min Rain = 0
KVP1 091011Z 33005KT M07/M07 A303 RMK A01 T10651074  RH  093%=      5-min Rain = 0
KVP1 091012Z 33005KT M07/M07 A303 RMK A01 T10651074  RH  094%=      5-min Rain = 0
KVP1 091013Z 33004KT M07/M07 A303 RMK A01 T10651074  RH  094%=      5-min Rain = 0
KVP1 091014Z 32004KT M07/M07 A303 RMK A01 T10651073  RH  094%=      5-min Rain = 0
KVP1 091015Z 33004KT M06/M07 A303 RMK A01 T10641073  RH  094%=      5-min Rain = 0
KVP1 091016Z 33005KT M06/M07 A303 RMK A01 T10641073  RH  094%=      5-min Rain = 0
KVP1 091017Z 33005KT M06/M07 A303 RMK A01 T10641073  RH  093%=      5-min Rain = 0
KVP1 091018Z 33005KT M06/M07 A3029 RMK A01 T10641073  RH  093%=      5-min Rain = 0
KVP1 091019Z 33005KT M06/M07 A3029 RMK A01 T10641073  RH  093%=      5-min Rain = 0
KVP1 091020Z 33005KT M06/M07 A3029 RMK A01 T10641074  RH  093%=      5-min Rain = 0
KVP1 091021Z 32005KT M06/M07 A3029 RMK A01 T10641074  RH  093%=      5-min Rain = 0
KVP1 091022Z 32005KT M06/M07 A303 RMK A01 T10641074  RH  093%=      5-min Rain = 0
KVP1 091023Z 32005KT M06/M07 A303 RMK A01 T10641074  RH  093%=      5-min Rain = 0
KVP1 091024Z 32005KT M06/M07 A303 RMK A01 T10641074  RH  093%=      5-min Rain = 0
KVP1 091025Z 32005KT M07/M07 A303 RMK A01 T10651074  RH  093%=      5-min Rain = 0
KVP1 091026Z 32005KT M07/M08 A303 RMK A01 T10651075  RH  093%=      5-min Rain = 0
KVP1 091027Z 32004KT M07/M08 A303 RMK A01 T10651075  RH  092%=      5-min Rain = 0
KVP1 091028Z 32004KT M07/M08 A303 RMK A01 T10651076  RH  092%=      5-min Rain = 0
KVP1 091029Z 32004KT M07/M08 A303 RMK A01 T10651075  RH  093%=      5-min Rain = 0
KVP1 091030Z 32004KT M07/M08 A303 RMK A01 T10651075  RH  093%=      5-min Rain = 0
KVP1 091031Z 32004KT M07/M08 A303 RMK A01 T10651075  RH  093%=      5-min Rain = 0
KVP1 091032Z 31004KT M06/M07 A303 RMK A01 T10641074  RH  093%=      5-min Rain = 0
KVP1 091033Z 31004KT M06/M07 A303 RMK A01 T10641073  RH  093%=      5-min Rain = 0
KVP1 091034Z 31004KT M06/M07 A303 RMK A01 T10641074  RH  093%=      5-min Rain = 0
KVP1 091035Z 31004KT M06/M07 A303 RMK A01 T10641074  RH  093%=      5-min Rain = 0
KVP1 091036Z 31004KT M06/M07 A303 RMK A01 T10641074  RH  093%=      5-min Rain = 0
KVP1 091037Z 30004KT M06/M07 A303 RMK A01 T10641073  RH  093%=      5-min Rain = 0
KVP1 091038Z 30004KT M06/M07 A303 RMK A01 T10641073  RH  093%=      5-min Rain = 0
KVP1 091039Z 30004KT M06/M07 A303 RMK A01 T10641073  RH  093%=      5-min Rain = 0
KVP1 091040Z 30004KT M06/M07 A303 RMK A01 T10641074  RH  093%=      5-min Rain = 0
KVP1 091041Z 31004KT M06/M07 A303 RMK A01 T10641074  RH  093%=      5-min Rain = 0
KVP1 091042Z 31004KT M06/M08 A303 RMK A01 T10641075  RH  092%=      5-min Rain = 0
KVP1 091043Z 31005KT M06/M08 A303 RMK A01 T10641075  RH  092%=      5-min Rain = 0
KVP1 091044Z 31005KT M06/M08 A303 RMK A01 T10641075  RH  092%=      5-min Rain = 0
KVP1 091045Z 32005KT M06/M08 A303 RMK A01 T10641075  RH  092%=      5-min Rain = 0
KVP1 091046Z 32006KT M07/M08 A303 RMK A01 T10651075  RH  092%=      5-min Rain = 0
KVP1 091047Z 32006KT M07/M08 A303 RMK A01 T10651075  RH  092%=      5-min Rain = 0
KVP1 091048Z 32006KT M07/M08 A303 RMK A01 T10651075  RH  092%=      5-min Rain = 0
KVP1 091049Z 32006KT M07/M08 A303 RMK A01 T10651075  RH  092%=      5-min Rain = 0
KVP1 091050Z 32006KT M07/M08 A303 RMK A01 T10651076  RH  092%=      5-min Rain = 0
KVP1 091051Z 32006KT M07/M08 A303 RMK A01 T10661077  RH  092%=      5-min Rain = 0
KVP1 091052Z 33006KT M07/M08 A303 RMK A01 T10661077  RH  092%=      5-min Rain = 0
KVP1 091053Z 33006KT M07/M08 A303 RMK A01 T10671078  RH  092%=      5-min Rain = 0
KVP1 091054Z 33005KT M07/M08 A303 RMK A01 T10671078  RH  092%=      5-min Rain = 0
KVP1 091055Z 33005KT M07/M08 A303 RMK A01 T10671078  RH  092%=      5-min Rain = 0
KVP1 091056Z 33005KT M07/M08 A303 RMK A01 T10671077  RH  093%=      5-min Rain = 0
KVP1 091057Z 33005KT M07/M08 A303 RMK A01 T10661076  RH  093%=      5-min Rain = 0
KVP1 091058Z 33005KT M07/M08 A303 RMK A01 T10661075  RH  093%=      5-min Rain = 0
KVP1 091059Z 33005KT M07/M07 A303 RMK A01 T10651074  RH  093%=      5-min Rain = 0
KVP1 091100Z 33005KT M07/M07 A303 RMK A01 T10651074  RH  093%=      5-min Rain = 0
KVP1 091101Z 33005KT M07/M07 A303 RMK A01 T10651074  RH  093%=      5-min Rain = 0
KVP1 091102Z 33005KT M06/M07 A303 RMK A01 T10641073  RH  093%=      5-min Rain = 0
KVP1 091103Z 33005KT M06/M07 A303 RMK A01 T10641073  RH  093%=      5-min Rain = 0
KVP1 091104Z 33005KT M06/M07 A303 RMK A01 T10641073  RH  093%=      5-min Rain = 0
KVP1 091105Z 33005KT M06/M07 A303 RMK A01 T10641073  RH  093%=      5-min Rain = 0
KVP1 091106Z 33005KT M06/M07 A303 RMK A01 T10631073  RH  093%=      5-min Rain = 0
KVP1 091107Z 33005KT M06/M07 A303 RMK A01 T10631072  RH  093%=      5-min Rain = 0
KVP1 091108Z 33005KT M06/M07 A303 RMK A01 T10631072  RH  093%=      5-min Rain = 0
KVP1 091109Z 33004KT M06/M07 A303 RMK A01 T10631072  RH  093%=      5-min Rain = 0
KVP1 091110Z 33004KT M06/M07 A303 RMK A01 T10621072  RH  093%=      5-min Rain = 0
KVP1 091111Z 33004KT M06/M07 A303 RMK A01 T10631073  RH  093%=      5-min Rain = 0
KVP1 091112Z 32004KT M06/M07 A303 RMK A01 T10631073  RH  092%=      5-min Rain = 0
KVP1 091113Z 32004KT M06/M07 A303 RMK A01 T10631073  RH  092%=      5-min Rain = 0
KVP1 091114Z 32004KT M06/M07 A303 RMK A01 T10631074  RH  092%=      5-min Rain = 0
KVP1 091115Z 33004KT M06/M08 A303 RMK A01 T10641075  RH  092%=      5-min Rain = 0
KVP1 091116Z 33004KT M06/M08 A303 RMK A01 T10641075  RH  092%=      5-min Rain = 0
KVP1 091117Z 33004KT M07/M08 A303 RMK A01 T10651076  RH  092%=      5-min Rain = 0
KVP1 091118Z 33005KT M07/M08 A303 RMK A01 T10651077  RH  092%=      5-min Rain = 0
KVP1 091119Z 33005KT M07/M08 A303 RMK A01 T10661077  RH  092%=      5-min Rain = 0
KVP1 091120Z 33005KT M07/M08 A303 RMK A01 T10661077  RH  092%=      5-min Rain = 0
KVP1 091121Z 33005KT M07/M08 A303 RMK A01 T10651075  RH  093%=      5-min Rain = 0
KVP1 091122Z 33005KT M06/M07 A303 RMK A01 T10641073  RH  093%=      5-min Rain = 0
KVP1 091123Z 33005KT M06/M07 A303 RMK A01 T10641073  RH  093%=      5-min Rain = 0
KVP1 091124Z 33005KT M06/M07 A3029 RMK A01 T10641073  RH  093%=      5-min Rain = 0
KVP1 091125Z 33004KT M06/M07 A3029 RMK A01 T10631072  RH  093%=      5-min Rain = 0
KVP1 091126Z 33004KT M06/M07 A3029 RMK A01 T10631073  RH  093%=      5-min Rain = 0
KVP1 091127Z 33004KT M06/M07 A3029 RMK A01 T10631073  RH  093%=      5-min Rain = 0
KVP1 091128Z 33004KT M06/M07 A3029 RMK A01 T10631073  RH  092%=      5-min Rain = 0
KVP1 091129Z 33004KT M06/M07 A303 RMK A01 T10631074  RH  092%=      5-min Rain = 0
KVP1 091130Z 33004KT M06/M07 A303 RMK A01 T10631074  RH  092%=      5-min Rain = 0
KVP1 091131Z 33004KT M06/M07 A303 RMK A01 T10641074  RH  092%=      5-min Rain = 0
KVP1 091132Z 33004KT M06/M07 A303 RMK A01 T10631073  RH  093%=      5-min Rain = 0
KVP1 091133Z 33004KT M06/M07 A3029 RMK A01 T10631073  RH  093%=      5-min Rain = 0
KVP1 091134Z 34004KT M06/M07 A3029 RMK A01 T10621071  RH  093%=      5-min Rain = 0
KVP1 091135Z 34004KT M06/M07 A3029 RMK A01 T10611071  RH  093%=      5-min Rain = 0
KVP1 091136Z 34004KT M06/M07 A3029 RMK A01 T10601069  RH  093%=      5-min Rain = 0
KVP1 091137Z 34004KT M06/M07 A3029 RMK A01 T10601069  RH  093%=      5-min Rain = 0
KVP1 091138Z 34004KT M06/M07 A303 RMK A01 T10591069  RH  093%=      5-min Rain = 0
KVP1 091139Z 34004KT M06/M07 A303 RMK A01 T10591069  RH  092%=      5-min Rain = 0
KVP1 091140Z 34004KT M06/M07 A303 RMK A01 T10591070  RH  092%=      5-min Rain = 0
KVP1 091141Z 33004KT M06/M07 A303 RMK A01 T10591071  RH  092%=      5-min Rain = 0
KVP1 091142Z 33005KT M06/M07 A303 RMK A01 T10601072  RH  091%=      5-min Rain = 0
KVP1 091143Z 33005KT M06/M07 A303 RMK A01 T10611073  RH  091%=      5-min Rain = 0
KVP1 091144Z 33004KT M06/M07 A303 RMK A01 T10611074  RH  091%=      5-min Rain = 0
KVP1 091145Z 33004KT M06/M08 A303 RMK A01 T10621075  RH  091%=      5-min Rain = 0
KVP1 091146Z 33004KT M06/M08 A303 RMK A01 T10631075  RH  091%=      5-min Rain = 0
KVP1 091147Z 33004KT M06/M08 A303 RMK A01 T10621075  RH  091%=      5-min Rain = 0
KVP1 091148Z 33004KT M06/M07 A303 RMK A01 T10631074  RH  091%=      5-min Rain = 0
KVP1 091149Z 33004KT M06/M08 A303 RMK A01 T10631075  RH  091%=      5-min Rain = 0
KVP1 091150Z 32004KT M06/M07 A303 RMK A01 T10631074  RH  091%=      5-min Rain = 0
KVP1 091151Z 32004KT M06/M08 A303 RMK A01 T10631075  RH  091%=      5-min Rain = 0
KVP1 091152Z 32004KT M06/M08 A303 RMK A01 T10631075  RH  091%=      5-min Rain = 0
KVP1 091153Z 32004KT M06/M08 A303 RMK A01 T10631075  RH  091%=      5-min Rain = 0
KVP1 091154Z 32004KT M06/M08 A303 RMK A01 T10631075  RH  092%=      5-min Rain = 0
KVP1 091155Z 32004KT M06/M08 A303 RMK A01 T10631075  RH  092%=      5-min Rain = 0
KVP1 091156Z 32005KT M06/M08 A303 RMK A01 T10631075  RH  091%=      5-min Rain = 0
KVP1 091157Z 32005KT M06/M08 A303 RMK A01 T10631075  RH  091%=      5-min Rain = 0
KVP1 091158Z 32005KT M06/M08 A303 RMK A01 T10641076  RH  091%=      5-min Rain = 0
KVP1 091159Z 32005KT M06/M08 A303 RMK A01 T10641076  RH  091%=      5-min Rain = 0
KVP1 091200Z 32005KT M06/M08 A303 RMK A01 T10641077  RH  091%=      5-min Rain = 0
KVP1 091201Z 32005KT M07/M08 A303 RMK A01 T10651077  RH  091%=      5-min Rain = 0
KVP1 091202Z 32005KT M07/M08 A303 RMK A01 T10651078  RH  091%=      5-min Rain = 0
KVP1 091203Z 32005KT M07/M08 A303 RMK A01 T10661079  RH  091%=      5-min Rain = 0
KVP1 091204Z 32005KT M07/M08 A303 RMK A01 T10661078  RH  091%=      5-min Rain = 0
KVP1 091205Z 32005KT M07/M08 A303 RMK A01 T10661079  RH  091%=      5-min Rain = 0
KVP1 091206Z 32006KT M07/M08 A303 RMK A01 T10661078  RH  091%=      5-min Rain = 0
KVP1 091207Z 32005KT M07/M08 A303 RMK A01 T10661078  RH  091%=      5-min Rain = 0
KVP1 091208Z 33005KT M07/M08 A303 RMK A01 T10671079  RH  091%=      5-min Rain = 0
KVP1 091209Z 33005KT M07/M08 A303 RMK A01 T10671079  RH  091%=      5-min Rain = 0
KVP1 091210Z 33005KT M07/M08 A303 RMK A01 T10671079  RH  091%=      5-min Rain = 0
KVP1 091211Z 33005KT M07/M08 A303 RMK A01 T10671079  RH  091%=      5-min Rain = 0
KVP1 091212Z 33005KT M07/M08 A303 RMK A01 T10671078  RH  092%=      5-min Rain = 0
KVP1 091213Z 33005KT M07/M08 A303 RMK A01 T10661077  RH  092%=      5-min Rain = 0
KVP1 091214Z 33005KT M07/M08 A303 RMK A01 T10661076  RH  092%=      5-min Rain = 0
KVP1 091215Z 33005KT M07/M08 A303 RMK A01 T10651076  RH  092%=      5-min Rain = 0
KVP1 091216Z 33005KT M07/M08 A303 RMK A01 T10651077  RH  092%=      5-min Rain = 0
KVP1 091217Z 33005KT M07/M08 A303 RMK A01 T10661077  RH  091%=      5-min Rain = 0
KVP1 091218Z 33005KT M07/M08 A303 RMK A01 T10661078  RH  091%=      5-min Rain = 0
KVP1 091219Z 33005KT M07/M08 A303 RMK A01 T10661078  RH  091%=      5-min Rain = 0
KVP1 091220Z 33005KT M07/M08 A303 RMK A01 T10661077  RH  091%=      5-min Rain = 0
KVP1 091221Z 33005KT M07/M08 A303 RMK A01 T10661077  RH  092%=      5-min Rain = 0
KVP1 091222Z 33005KT M07/M08 A3031 RMK A01 T10651077  RH  092%=      5-min Rain = 0
KVP1 091223Z 33006KT M07/M08 A3031 RMK A01 T10651076  RH  092%=      5-min Rain = 0
KVP1 091224Z 33005KT M07/M08 A3031 RMK A01 T10651077  RH  091%=      5-min Rain = 0
KVP1 091225Z 33005KT M07/M08 A3031 RMK A01 T10661079  RH  091%=      5-min Rain = 0
KVP1 091226Z 33005KT M07/M08 A3031 RMK A01 T10661079  RH  091%=      5-min Rain = 0
KVP1 091227Z 33005KT M07/M08 A3031 RMK A01 T10661078  RH  091%=      5-min Rain = 0
KVP1 091228Z 33005KT M07/M08 A3031 RMK A01 T10661078  RH  091%=      5-min Rain = 0
KVP1 091229Z 33006KT M07/M08 A3031 RMK A01 T10651077  RH  092%=      5-min Rain = 0
KVP1 091230Z 33006KT M07/M08 A3031 RMK A01 T10651077  RH  092%=      5-min Rain = 0
KVP1 091231Z 33006KT M07/M08 A3031 RMK A01 T10651077  RH  091%=      5-min Rain = 0
KVP1 091232Z 33006KT M07/M08 A3031 RMK A01 T10661078  RH  091%=      5-min Rain = 0
KVP1 091233Z 33006KT M07/M08 A3031 RMK A01 T10661079  RH  091%=      5-min Rain = 0
KVP1 091234Z 33006KT M07/M08 A3031 RMK A01 T10661079  RH  091%=      5-min Rain = 0
KVP1 091235Z 32005KT M07/M08 A3031 RMK A01 T10671080  RH  091%=      5-min Rain = 0
KVP1 091236Z 32005KT M07/M08 A3031 RMK A01 T10671080  RH  091%=      5-min Rain = 0
KVP1 091237Z 32005KT M07/M08 A3031 RMK A01 T10681081  RH  091%=      5-min Rain = 0
KVP1 091238Z 33005KT M07/M08 A3031 RMK A01 T10681081  RH  091%=      5-min Rain = 0
KVP1 091239Z 33005KT M07/M08 A3031 RMK A01 T10681080  RH  091%=      5-min Rain = 0
KVP1 091240Z 33005KT M07/M08 A3031 RMK A01 T10681080  RH  092%=      5-min Rain = 0
KVP1 091241Z 33005KT M07/M08 A3031 RMK A01 T10681079  RH  092%=      5-min Rain = 0
KVP1 091242Z 33005KT M07/M08 A3031 RMK A01 T10681079  RH  092%=      5-min Rain = 0
KVP1 091243Z 33005KT M07/M08 A3031 RMK A01 T10671078  RH  092%=      5-min Rain = 0
KVP1 091244Z 33005KT M07/M08 A3031 RMK A01 T10671078  RH  092%=      5-min Rain = 0
KVP1 091245Z 33005KT M07/M08 A3031 RMK A01 T10671079  RH  092%=      5-min Rain = 0
KVP1 091246Z 33005KT M07/M08 A3031 RMK A01 T10671079  RH  091%=      5-min Rain = 0
KVP1 091247Z 33005KT M07/M08 A3031 RMK A01 T10671079  RH  091%=      5-min Rain = 0
KVP1 091248Z 33006KT M07/M08 A3031 RMK A01 T10681079  RH  091%=      5-min Rain = 0
KVP1 091249Z 33005KT M07/M08 A3031 RMK A01 T10681080  RH  091%=      5-min Rain = 0
KVP1 091250Z 33005KT M07/M08 A3031 RMK A01 T10681080  RH  091%=      5-min Rain = 0
KVP1 091251Z 33005KT M07/M08 A3031 RMK A01 T10691081  RH  091%=      5-min Rain = 0
KVP1 091252Z 33005KT M07/M08 A3031 RMK A01 T10691082  RH  091%=      5-min Rain = 0
KVP1 091253Z 33005KT M07/M08 A3032 RMK A01 T10691081  RH  091%=      5-min Rain = 0
KVP1 091254Z 33005KT M07/M08 A3032 RMK A01 T10681079  RH  091%=      5-min Rain = 0
KVP1 091255Z 33005KT M07/M08 A3032 RMK A01 T10671079  RH  092%=      5-min Rain = 0
KVP1 091256Z 33005KT M07/M08 A3032 RMK A01 T10661077  RH  092%=      5-min Rain = 0
KVP1 091257Z 34004KT M07/M08 A3032 RMK A01 T10661077  RH  092%=      5-min Rain = 0
KVP1 091258Z 34004KT M07/M08 A3032 RMK A01 T10651077  RH  092%=      5-min Rain = 0
KVP1 091259Z 34005KT M07/M08 A3032 RMK A01 T10651076  RH  092%=      5-min Rain = 0
KVP1 091300Z 34005KT M06/M08 A3032 RMK A01 T10641075  RH  092%=      5-min Rain = 0
KVP1 091301Z 34005KT M06/M07 A3032 RMK A01 T10631074  RH  092%=      5-min Rain = 0
KVP1 091302Z 33005KT M06/M08 A3032 RMK A01 T10631075  RH  091%=      5-min Rain = 0
KVP1 091303Z 33006KT M06/M08 A3032 RMK A01 T10641077  RH  090%=      5-min Rain = 0
KVP1 091304Z 33006KT M07/M08 A3032 RMK A01 T10651079  RH  090%=      5-min Rain = 0
KVP1 091305Z 33006KT M07/M08 A3032 RMK A01 T10661081  RH  089%=      5-min Rain = 0
KVP1 091306Z 33006KT M07/M08 A3032 RMK A01 T10671083  RH  089%=      5-min Rain = 0
KVP1 091307Z 33006KT M07/M08 A3032 RMK A01 T10681082  RH  089%=      5-min Rain = 0
KVP1 091308Z 33005KT M07/M08 A3032 RMK A01 T10671081  RH  090%=      5-min Rain = 0
KVP1 091309Z 33005KT M07/M08 A3032 RMK A01 T10671081  RH  091%=      5-min Rain = 0
KVP1 091310Z 33005KT M07/M08 A3032 RMK A01 T10671079  RH  091%=      5-min Rain = 0
KVP1 091311Z 34004KT M07/M08 A3032 RMK A01 T10661077  RH  092%=      5-min Rain = 0
KVP1 091312Z 34004KT M06/M08 A3032 RMK A01 T10641076  RH  092%=      5-min Rain = 0
KVP1 091313Z 33004KT M06/M08 A3032 RMK A01 T10641075  RH  092%=      5-min Rain = 0
KVP1 091314Z 33004KT M06/M08 A3032 RMK A01 T10631075  RH  092%=      5-min Rain = 0
KVP1 091315Z 34003KT M06/M08 A3032 RMK A01 T10631075  RH  091%=      5-min Rain = 0
KVP1 091316Z 34004KT M06/M08 A3032 RMK A01 T10621075  RH  091%=      5-min Rain = 0
KVP1 091317Z 33004KT M06/M07 A3032 RMK A01 T10621074  RH  091%=      5-min Rain = 0
KVP1 091318Z 33003KT M06/M07 A3032 RMK A01 T10611074  RH  091%=      5-min Rain = 0
KVP1 091319Z 33004KT M06/M07 A3032 RMK A01 T10611074  RH  091%=      5-min Rain = 0
KVP1 091320Z 34003KT M06/M07 A3032 RMK A01 T10611074  RH  091%=      5-min Rain = 0
KVP1 091321Z 34003KT M06/M07 A3032 RMK A01 T10601073  RH  090%=      5-min Rain = 0
KVP1 091322Z 34003KT M06/M07 A3033 RMK A01 T10591073  RH  090%=      5-min Rain = 0
KVP1 091323Z 34003KT M06/M07 A3033 RMK A01 T10591073  RH  090%=      5-min Rain = 0
KVP1 091324Z 34003KT M06/M07 A3033 RMK A01 T10601074  RH  090%=      5-min Rain = 0
KVP1 091325Z 34003KT M06/M07 A3033 RMK A01 T10591074  RH  090%=      5-min Rain = 0
KVP1 091326Z 34004KT M06/M07 A3033 RMK A01 T10591074  RH  090%=      5-min Rain = 0
KVP1 091327Z 34004KT M06/M07 A3033 RMK A01 T10591074  RH  089%=      5-min Rain = 0
KVP1 091328Z 34004KT M06/M07 A3033 RMK A01 T10601074  RH  089%=      5-min Rain = 0
KVP1 091329Z 34004KT M06/M07 A3033 RMK A01 T10591074  RH  090%=      5-min Rain = 0
KVP1 091330Z 35003KT M06/M07 A3033 RMK A01 T10591074  RH  090%=      5-min Rain = 0
KVP1 091331Z 34002KT M06/M07 A3033 RMK A01 T10591073  RH  090%=      5-min Rain = 0
KVP1 091332Z 34003KT M06/M07 A3033 RMK A01 T10591073  RH  090%=      5-min Rain = 0
KVP1 091333Z 34003KT M06/M07 A3033 RMK A01 T10591073  RH  090%=      5-min Rain = 0
KVP1 091334Z 34003KT M06/M07 A3033 RMK A01 T10591074  RH  090%=      5-min Rain = 0
KVP1 091335Z 34003KT M06/M07 A3033 RMK A01 T10581073  RH  090%=      5-min Rain = 0
KVP1 091336Z 34003KT M06/M07 A3033 RMK A01 T10581073  RH  089%=      5-min Rain = 0
KVP1 091337Z 35003KT M06/M08 A3033 RMK A01 T10591076  RH  088%=      5-min Rain = 0
KVP1 091338Z 34004KT M06/M08 A3033 RMK A01 T10611079  RH  087%=      5-min Rain = 0
KVP1 091339Z 34004KT M06/M08 A3033 RMK A01 T10621079  RH  088%=      5-min Rain = 0
KVP1 091340Z 33004KT M06/M08 A3033 RMK A01 T10621078  RH  088%=      5-min Rain = 0
KVP1 091341Z 33004KT M06/M08 A3033 RMK A01 T10631078  RH  089%=      5-min Rain = 0
KVP1 091342Z 33005KT M06/M08 A3033 RMK A01 T10631078  RH  089%=      5-min Rain = 0
KVP1 091343Z 33005KT M06/M08 A3033 RMK A01 T10631077  RH  089%=      5-min Rain = 0
KVP1 091344Z 33005KT M06/M08 A3033 RMK A01 T10621076  RH  090%=      5-min Rain = 0
KVP1 091345Z 33005KT M06/M08 A3033 RMK A01 T10621076  RH  090%=      5-min Rain = 0
KVP1 091346Z 33005KT M06/M07 A3033 RMK A01 T10611074  RH  090%=      5-min Rain = 0
KVP1 091347Z 33005KT M06/M08 A3033 RMK A01 T10601075  RH  089%=      5-min Rain = 0
KVP1 091348Z 33005KT M06/M08 A3033 RMK A01 T10611076  RH  089%=      5-min Rain = 0
KVP1 091349Z 33005KT M06/M08 A3034 RMK A01 T10611077  RH  089%=      5-min Rain = 0
KVP1 091350Z 33005KT M06/M08 A3034 RMK A01 T10621078  RH  088%=      5-min Rain = 0
KVP1 091351Z 33005KT M06/M08 A3034 RMK A01 T10621078  RH  088%=      5-min Rain = 0
KVP1 091352Z 33005KT M06/M08 A3034 RMK A01 T10621079  RH  088%=      5-min Rain = 0
KVP1 091353Z 33005KT M06/M08 A3034 RMK A01 T10631079  RH  088%=      5-min Rain = 0
KVP1 091354Z 33005KT M06/M08 A3034 RMK A01 T10631079  RH  088%=      5-min Rain = 0
KVP1 091355Z 33005KT M06/M08 A3034 RMK A01 T10631079  RH  088%=      5-min Rain = 0
KVP1 091356Z 33005KT M06/M08 A3034 RMK A01 T10621078  RH  088%=      5-min Rain = 0
KVP1 091357Z 33005KT M06/M08 A3034 RMK A01 T10631079  RH  088%=      5-min Rain = 0
KVP1 091358Z 33005KT M06/M08 A3034 RMK A01 T10621078  RH  088%=      5-min Rain = 0
KVP1 091359Z 33006KT M06/M08 A3034 RMK A01 T10621078  RH  088%=      5-min Rain = 0
KVP1 091400Z 33005KT M06/M08 A3034 RMK A01 T10621078  RH  089%=      5-min Rain = 0
KVP1 091401Z 33005KT M06/M08 A3034 RMK A01 T10611077  RH  089%=      5-min Rain = 0
KVP1 091402Z 33005KT M06/M08 A3034 RMK A01 T10611076  RH  089%=      5-min Rain = 0
KVP1 091403Z 33006KT M06/M08 A3034 RMK A01 T10611077  RH  089%=      5-min Rain = 0
KVP1 091404Z 33006KT M06/M08 A3034 RMK A01 T10601076  RH  089%=      5-min Rain = 0
KVP1 091405Z 33006KT M06/M08 A3034 RMK A01 T10601076  RH  089%=      5-min Rain = 0
KVP1 091406Z 33006KT M06/M08 A3034 RMK A01 T10601076  RH  089%=      5-min Rain = 0
KVP1 091407Z 33006KT M06/M08 A3034 RMK A01 T10611076  RH  089%=      5-min Rain = 0
KVP1 091408Z 33006KT M06/M08 A3034 RMK A01 T10611076  RH  089%=      5-min Rain = 0
KVP1 091409Z 33006KT M06/M08 A3034 RMK A01 T10611076  RH  089%=      5-min Rain = 0
KVP1 091410Z 33006KT M06/M08 A3034 RMK A01 T10611076  RH  089%=      5-min Rain = 0
KVP1 091411Z 33006KT M06/M08 A3034 RMK A01 T10611076  RH  089%=      5-min Rain = 0
KVP1 091412Z 33005KT M06/M08 A3034 RMK A01 T10611076  RH  089%=      5-min Rain = 0
KVP1 091413Z 33006KT M06/M08 A3034 RMK A01 T10601075  RH  089%=      5-min Rain = 0
KVP1 091414Z 33006KT M06/M08 A3034 RMK A01 T10601075  RH  089%=      5-min Rain = 0
KVP1 091415Z 33006KT M06/M08 A3034 RMK A01 T10601075  RH  089%=      5-min Rain = 0
KVP1 091416Z 33006KT M06/M08 A3034 RMK A01 T10601076  RH  089%=      5-min Rain = 0
KVP1 091417Z 33006KT M06/M08 A3034 RMK A01 T10601075  RH  089%=      5-min Rain = 0
KVP1 091418Z 33006KT M06/M08 A3034 RMK A01 T10601075  RH  089%=      5-min Rain = 0
KVP1 091419Z 33006KT M06/M07 A3034 RMK A01 T10591074  RH  089%=      5-min Rain = 0
KVP1 091420Z 33006KT M06/M07 A3034 RMK A01 T10581074  RH  089%=      5-min Rain = 0
KVP1 091421Z 33006KT M06/M07 A3034 RMK A01 T10581073  RH  089%=      5-min Rain = 0
KVP1 091422Z 33007KT M06/M07 A3034 RMK A01 T10571072  RH  089%=      5-min Rain = 0
KVP1 091423Z 32007KT M06/M07 A3034 RMK A01 T10571072  RH  089%=      5-min Rain = 0
KVP1 091424Z 32007KT M06/M07 A3035 RMK A01 T10561070  RH  089%=      5-min Rain = 0
KVP1 091425Z 32007KT M05/M07 A3035 RMK A01 T10541069  RH  089%=      5-min Rain = 0
KVP1 091426Z 32006KT M05/M07 A3035 RMK A01 T10531069  RH  089%=      5-min Rain = 0
KVP1 091427Z 32006KT M05/M07 A3035 RMK A01 T10531068  RH  089%=      5-min Rain = 0
KVP1 091428Z 32006KT M05/M07 A3035 RMK A01 T10511067  RH  089%=      5-min Rain = 0
KVP1 091429Z 32007KT M05/M07 A3035 RMK A01 T10501065  RH  089%=      5-min Rain = 0
KVP1 091430Z 32006KT M05/M06 A3035 RMK A01 T10491064  RH  089%=      5-min Rain = 0
KVP1 091431Z 31006KT M05/M06 A3035 RMK A01 T10471063  RH  089%=      5-min Rain = 0
KVP1 091432Z 31006KT M05/M06 A3035 RMK A01 T10461062  RH  088%=      5-min Rain = 0
KVP1 091433Z 31005KT M05/M06 A3035 RMK A01 T10451062  RH  088%=      5-min Rain = 0
KVP1 091434Z 31005KT M05/M06 A3035 RMK A01 T10451062  RH  088%=      5-min Rain = 0
KVP1 091435Z 31005KT M05/M06 A3035 RMK A01 T10451062  RH  088%=      5-min Rain = 0
KVP1 091436Z 30005KT M05/M06 A3035 RMK A01 T10451062  RH  088%=      5-min Rain = 0
KVP1 091437Z 30005KT M05/M06 A3035 RMK A01 T10451062  RH  087%=      5-min Rain = 0
KVP1 091438Z 30005KT M05/M06 A3035 RMK A01 T10451062  RH  088%=      5-min Rain = 0
KVP1 091439Z 31005KT M04/M06 A3035 RMK A01 T10441062  RH  088%=      5-min Rain = 0
KVP1 091440Z 31005KT M04/M06 A3035 RMK A01 T10441061  RH  088%=      5-min Rain = 0
KVP1 091441Z 31005KT M04/M06 A3035 RMK A01 T10431062  RH  087%=      5-min Rain = 0
KVP1 091442Z 31005KT M04/M06 A3035 RMK A01 T10431061  RH  087%=      5-min Rain = 0
KVP1 091443Z 31004KT M04/M06 A3035 RMK A01 T10421060  RH  087%=      5-min Rain = 0
KVP1 091444Z 30004KT M04/M06 A3035 RMK A01 T10411059  RH  087%=      5-min Rain = 0
KVP1 091445Z 31004KT M04/M06 A3035 RMK A01 T10401059  RH  087%=      5-min Rain = 0
KVP1 091446Z 31004KT M04/M06 A3035 RMK A01 T10391058  RH  087%=      5-min Rain = 0
KVP1 091447Z 30004KT M04/M06 A3035 RMK A01 T10381056  RH  087%=      5-min Rain = 0
KVP1 091448Z 30004KT M04/M06 A3035 RMK A01 T10381056  RH  087%=      5-min Rain = 0
KVP1 091449Z 30004KT M04/M06 A3035 RMK A01 T10361055  RH  087%=      5-min Rain = 0
KVP1 091450Z 31005KT M04/M06 A3035 RMK A01 T10361055  RH  087%=      5-min Rain = 0
KVP1 091451Z 31004KT M04/M05 A3035 RMK A01 T10351054  RH  087%=      5-min Rain = 0
KVP1 091452Z 31005KT M03/M05 A3035 RMK A01 T10341052  RH  087%=      5-min Rain = 0
KVP1 091453Z 31005KT M03/M05 A3035 RMK A01 T10331051  RH  087%=      5-min Rain = 0
KVP1 091454Z 31005KT M03/M05 A3035 RMK A01 T10321052  RH  086%=      5-min Rain = 0
KVP1 091455Z 31005KT M03/M05 A3035 RMK A01 T10321051  RH  086%=      5-min Rain = 0
KVP1 091456Z 31005KT M03/M05 A3035 RMK A01 T10311050  RH  086%=      5-min Rain = 0
KVP1 091457Z 31005KT M03/M05 A3035 RMK A01 T10301049  RH  087%=      5-min Rain = 0
KVP1 091458Z 31005KT M03/M05 A3035 RMK A01 T10291047  RH  087%=      5-min Rain = 0
KVP1 091459Z 31006KT M03/M05 A3036 RMK A01 T10281046  RH  088%=      5-min Rain = 0
KVP1 091500Z 31006KT M03/M05 A3036 RMK A01 T10271047  RH  086%=      5-min Rain = 0
KVP1 091501Z 31006KT M03/M05 A3036 RMK A01 T10271048  RH  086%=      5-min Rain = 0
KVP1 091502Z 32005KT M03/M05 A3036 RMK A01 T10261047  RH  086%=      5-min Rain = 0
KVP1 091503Z 31006KT M03/M05 A3036 RMK A01 T10251045  RH  087%=      5-min Rain = 0
KVP1 091504Z 31006KT M02/M04 A3036 RMK A01 T10241043  RH  087%=      5-min Rain = 0
KVP1 091505Z 32006KT M02/M04 A3036 RMK A01 T10231043  RH  087%=      5-min Rain = 0
KVP1 091506Z 32005KT M02/M04 A3036 RMK A01 T10231043  RH  086%=      5-min Rain = 0
KVP1 091507Z 31005KT M02/M04 A3036 RMK A01 T10221041  RH  086%=      5-min Rain = 0
KVP1 091508Z 31005KT M02/M04 A3036 RMK A01 T10211039  RH  087%=      5-min Rain = 0
KVP1 091509Z 32005KT M02/M04 A3036 RMK A01 T10201038  RH  088%=      5-min Rain = 0
KVP1 091510Z 31005KT M02/M04 A3036 RMK A01 T10191038  RH  087%=      5-min Rain = 0
KVP1 091511Z 32006KT M02/M04 A3036 RMK A01 T10181038  RH  086%=      5-min Rain = 0
KVP1 091512Z 32006KT M02/M04 A3036 RMK A01 T10181041  RH  084%=      5-min Rain = 0
KVP1 091513Z 32006KT M02/M04 A3036 RMK A01 T10171040  RH  084%=      5-min Rain = 0
KVP1 091514Z 32006KT M02/M04 A3036 RMK A01 T10171041  RH  084%=      5-min Rain = 0
KVP1 091515Z 32006KT M02/M04 A3036 RMK A01 T10161041  RH  083%=      5-min Rain = 0
KVP1 091516Z 32005KT M02/M04 A3036 RMK A01 T10161040  RH  084%=      5-min Rain = 0
KVP1 091517Z 32006KT M02/M04 A3036 RMK A01 T10161038  RH  085%=      5-min Rain = 0
KVP1 091518Z 32004KT M02/M04 A3036 RMK A01 T10151038  RH  084%=      5-min Rain = 0
KVP1 091519Z 31005KT M01/M03 A3036 RMK A01 T10131034  RH  086%=      5-min Rain = 0
KVP1 091520Z 31005KT M01/M03 A3036 RMK A01 T10121034  RH  085%=      5-min Rain = 0
KVP1 091521Z 32005KT M01/M04 A3036 RMK A01 T10121035  RH  084%=      5-min Rain = 0
KVP1 091522Z 32005KT M01/M04 A3036 RMK A01 T10121037  RH  083%=      5-min Rain = 0
KVP1 091523Z 32004KT M01/M04 A3036 RMK A01 T10111036  RH  083%=      5-min Rain = 0
KVP1 091524Z 32004KT M01/M03 A3036 RMK A01 T10101031  RH  086%=      5-min Rain = 0
KVP1 091525Z 32004KT M01/M03 A3036 RMK A01 T10081029  RH  086%=      5-min Rain = 0
KVP1 091526Z 32004KT M01/M03 A3036 RMK A01 T10081029  RH  085%=      5-min Rain = 0
KVP1 091527Z 32005KT M01/M03 A3036 RMK A01 T10071032  RH  084%=      5-min Rain = 0
KVP1 091528Z 32005KT M01/M03 A3037 RMK A01 T10071033  RH  083%=      5-min Rain = 0
KVP1 091529Z 31004KT M01/M03 A3037 RMK A01 T10071034  RH  082%=      5-min Rain = 0
KVP1 091530Z 32005KT M01/M03 A3037 RMK A01 T10071033  RH  082%=      5-min Rain = 0
KVP1 091531Z 32005KT M01/M03 A3037 RMK A01 T10071034  RH  082%=      5-min Rain = 0
KVP1 091532Z 33005KT M01/M04 A3037 RMK A01 T10071035  RH  081%=      5-min Rain = 0
KVP1 091533Z 33005KT M01/M04 A3037 RMK A01 T10071036  RH  080%=      5-min Rain = 0
KVP1 091534Z 32006KT M01/M04 A3037 RMK A01 T10071038  RH  079%=      5-min Rain = 0
KVP1 091535Z 33005KT M01/M04 A3037 RMK A01 T10061036  RH  080%=      5-min Rain = 0
KVP1 091536Z 33004KT M01/M03 A3037 RMK A01 T10061033  RH  082%=      5-min Rain = 0
KVP1 091537Z 32005KT M00/M03 A3037 RMK A01 T10041031  RH  082%=      5-min Rain = 0
KVP1 091538Z 33004KT M00/M03 A3037 RMK A01 T10041034  RH  080%=      5-min Rain = 0
KVP1 091539Z 32005KT M00/M03 A3037 RMK A01 T10031034  RH  080%=      5-min Rain = 0
KVP1 091540Z 32005KT M00/M04 A3037 RMK A01 T10031037  RH  078%=      5-min Rain = 0
KVP1 091541Z 33005KT M00/M04 A3037 RMK A01 T10031036  RH  079%=      5-min Rain = 0
KVP1 091542Z 33005KT M00/M03 A3037 RMK A01 T10021034  RH  080%=      5-min Rain = 0
KVP1 091543Z 33006KT M00/M03 A3037 RMK A01 T10011031  RH  081%=      5-min Rain = 0
KVP1 091544Z 32006KT M00/M03 A3037 RMK A01 T10011033  RH  079%=      5-min Rain = 0
KVP1 091545Z 32006KT 00/03 A3037 RMK A01 T00-00-33  RH  079%=      5-min Rain = 0
KVP1 091546Z 32006KT M00/M03 A3037 RMK A01 T10011034  RH  078%=      5-min Rain = 0
KVP1 091547Z 33004KT M00/M04 A3037 RMK A01 T10011036  RH  078%=      5-min Rain = 0
KVP1 091548Z 32006KT M00/M03 A3037 RMK A01 T10021034  RH  079%=      5-min Rain = 0
KVP1 091549Z 32006KT M00/M04 A3037 RMK A01 T10031036  RH  078%=      5-min Rain = 0
KVP1 091550Z 33005KT M00/M03 A3037 RMK A01 T10031034  RH  079%=      5-min Rain = 0
KVP1 091551Z 33005KT M00/M04 A3037 RMK A01 T10031035  RH  079%=      5-min Rain = 0
KVP1 091552Z 33004KT M00/M04 A3037 RMK A01 T10031035  RH  079%=      5-min Rain = 0
KVP1 091553Z 32005KT M00/M03 A3037 RMK A01 T10031034  RH  080%=      5-min Rain = 0
KVP1 091554Z 32005KT M00/M03 A3037 RMK A01 T10031034  RH  080%=      5-min Rain = 0
KVP1 091555Z 32005KT M00/M03 A3037 RMK A01 T10041034  RH  080%=      5-min Rain = 0
KVP1 091556Z 32005KT M00/M03 A3037 RMK A01 T10041033  RH  081%=      5-min Rain = 0
KVP1 091557Z 32004KT M00/M03 A3037 RMK A01 T10021030  RH  082%=      5-min Rain = 0
KVP1 091558Z 32004KT 00/03 A3037 RMK A01 T00-00-26  RH  083%=      5-min Rain = 0
KVP1 091559Z 32004KT 00/M02 A3038 RMK A01 T00021024  RH  082%=      5-min Rain = 0
KVP1 091600Z 32004KT 00/M03 A3038 RMK A01 T00041026  RH  081%=      5-min Rain = 0
KVP1 091601Z 32004KT 01/M02 A3038 RMK A01 T00051023  RH  082%=      5-min Rain = 0
KVP1 091602Z 32004KT 01/M03 A3038 RMK A01 T00061025  RH  080%=      5-min Rain = 0
KVP1 091603Z 33004KT 01/M02 A3038 RMK A01 T00071024  RH  080%=      5-min Rain = 0
KVP1 091604Z 33005KT 01/M03 A3038 RMK A01 T00081027  RH  078%=      5-min Rain = 0
KVP1 091605Z 33005KT 01/M03 A3038 RMK A01 T00081030  RH  076%=      5-min Rain = 0
KVP1 091606Z 32004KT 01/M03 A3038 RMK A01 T00091027  RH  077%=      5-min Rain = 0
KVP1 091607Z 34003KT 01/M03 A3038 RMK A01 T00111025  RH  077%=      5-min Rain = 0
KVP1 091608Z 33003KT 01/M03 A3038 RMK A01 T00121026  RH  076%=      5-min Rain = 0
KVP1 091609Z 34004KT 01/M02 A3038 RMK A01 T00121024  RH  077%=      5-min Rain = 0
KVP1 091610Z 34005KT 01/M03 A3038 RMK A01 T00131025  RH  076%=      5-min Rain = 0
KVP1 091611Z 34005KT 01/M03 A3038 RMK A01 T00131028  RH  074%=      5-min Rain = 0
KVP1 091612Z 33003KT 01/M03 A3038 RMK A01 T00131026  RH  075%=      5-min Rain = 0
KVP1 091613Z 33005KT 02/M02 A3038 RMK A01 T00151023  RH  076%=      5-min Rain = 0
KVP1 091614Z 34005KT 02/M03 A3038 RMK A01 T00161027  RH  073%=      5-min Rain = 0
KVP1 091615Z 33005KT 02/M03 A3038 RMK A01 T00151027  RH  073%=      5-min Rain = 0
KVP1 091616Z 33005KT 02/M03 A3038 RMK A01 T00161029  RH  072%=      5-min Rain = 0
KVP1 091617Z 34005KT 02/M03 A3038 RMK A01 T00151028  RH  073%=      5-min Rain = 0
KVP1 091618Z 33005KT 02/M02 A3038 RMK A01 T00171022  RH  075%=      5-min Rain = 0
KVP1 091619Z 33005KT 02/M02 A3038 RMK A01 T00181024  RH  074%=      5-min Rain = 0
KVP1 091620Z 33005KT 02/M02 A3038 RMK A01 T00181022  RH  074%=      5-min Rain = 0
KVP1 091621Z 33006KT 02/M02 A3038 RMK A01 T00181024  RH  073%=      5-min Rain = 0
KVP1 091622Z 33006KT 02/M02 A3038 RMK A01 T00181023  RH  074%=      5-min Rain = 0
KVP1 091623Z 33006KT 02/M02 A3038 RMK A01 T00191024  RH  073%=      5-min Rain = 0
KVP1 091624Z 33006KT 02/M03 A3038 RMK A01 T00191026  RH  072%=      5-min Rain = 0
KVP1 091625Z 33006KT 02/M02 A3038 RMK A01 T00201022  RH  074%=      5-min Rain = 0
KVP1 091626Z 34006KT 02/M02 A3038 RMK A01 T00221022  RH  073%=      5-min Rain = 0
KVP1 091627Z 33006KT 02/M02 A3038 RMK A01 T00221023  RH  072%=      5-min Rain = 0
KVP1 091628Z 33007KT 02/M03 A3038 RMK A01 T00211025  RH  072%=      5-min Rain = 0
KVP1 091629Z 34007KT 02/M02 A3038 RMK A01 T00211024  RH  072%=      5-min Rain = 0
KVP1 091630Z 34006KT 02/M02 A3038 RMK A01 T00221024  RH  072%=      5-min Rain = 0
KVP1 091631Z 34007KT 02/M02 A3038 RMK A01 T00221024  RH  072%=      5-min Rain = 0
KVP1 091632Z 33006KT 02/M02 A3038 RMK A01 T00231022  RH  072%=      5-min Rain = 0
KVP1 091633Z 33006KT 02/M02 A3038 RMK A01 T00241020  RH  073%=      5-min Rain = 0
KVP1 091634Z 34006KT 03/M02 A3038 RMK A01 T00261019  RH  073%=      5-min Rain = 0
KVP1 091635Z 34005KT 03/M02 A3038 RMK A01 T00261024  RH  070%=      5-min Rain = 0
KVP1 091636Z 35005KT 03/M03 A3038 RMK A01 T00251026  RH  069%=      5-min Rain = 0
KVP1 091637Z 34004KT 02/M02 A3038 RMK A01 T00241024  RH  070%=      5-min Rain = 0
KVP1 091638Z 35005KT 03/M02 A3038 RMK A01 T00261020  RH  071%=      5-min Rain = 0
KVP1 091639Z 35006KT 03/M03 A3038 RMK A01 T00271028  RH  067%=      5-min Rain = 0
KVP1 091640Z 35006KT 03/M03 A3038 RMK A01 T00261029  RH  067%=      5-min Rain = 0
KVP1 091641Z 36005KT 03/M03 A3038 RMK A01 T00271027  RH  067%=      5-min Rain = 0
KVP1 091642Z 34005KT 03/M03 A3038 RMK A01 T00281025  RH  068%=      5-min Rain = 0
KVP1 091643Z 34006KT 03/M02 A3038 RMK A01 T00301021  RH  069%=      5-min Rain = 0
KVP1 091644Z 35005KT 03/M02 A3038 RMK A01 T00311024  RH  067%=      5-min Rain = 0
KVP1 091645Z 36004KT 03/M03 A3038 RMK A01 T00321025  RH  066%=      5-min Rain = 0
KVP1 091646Z 35005KT 03/M02 A3038 RMK A01 T00331023  RH  067%=      5-min Rain = 0
KVP1 091647Z 34005KT 03/M02 A3038 RMK A01 T00341023  RH  066%=      5-min Rain = 0
KVP1 091648Z 35005KT 04/M02 A3038 RMK A01 T00351023  RH  066%=      5-min Rain = 0
KVP1 091649Z 35005KT 04/M03 A3038 RMK A01 T00351026  RH  065%=      5-min Rain = 0
KVP1 091650Z 35006KT 04/M03 A3038 RMK A01 T00351028  RH  063%=      5-min Rain = 0
KVP1 091651Z 34005KT 03/M03 A3038 RMK A01 T00341030  RH  063%=      5-min Rain = 0
KVP1 091652Z 34005KT 03/M03 A3038 RMK A01 T00341027  RH  064%=      5-min Rain = 0
KVP1 091653Z 35004KT 04/M03 A3038 RMK A01 T00351028  RH  064%=      5-min Rain = 0
KVP1 091654Z 34005KT 04/M03 A3038 RMK A01 T00351027  RH  064%=      5-min Rain = 0
KVP1 091655Z 34004KT 04/M02 A3038 RMK A01 T00361022  RH  066%=      5-min Rain = 0
KVP1 091656Z 34005KT 04/M02 A3038 RMK A01 T00391022  RH  065%=      5-min Rain = 0
KVP1 091657Z 35006KT 04/M03 A3038 RMK A01 T00401025  RH  063%=      5-min Rain = 0
KVP1 091658Z 02004KT 04/M03 A3038 RMK A01 T00391031  RH  060%=      5-min Rain = 0
KVP1 091659Z 00005KT 04/M03 A3038 RMK A01 T00381029  RH  061%=      5-min Rain = 0
KVP1 091700Z 35005KT 04/M03 A3038 RMK A01 T00381032  RH  060%=      5-min Rain = 0
KVP1 091701Z 34005KT 04/M03 A3038 RMK A01 T00381029  RH  061%=      5-min Rain = 0
KVP1 091702Z 34005KT 04/M03 A3038 RMK A01 T00401026  RH  062%=      5-min Rain = 0
KVP1 091703Z 34005KT 04/M03 A3038 RMK A01 T00401029  RH  061%=      5-min Rain = 0
KVP1 091704Z 36006KT 04/M03 A3038 RMK A01 T00391029  RH  061%=      5-min Rain = 0
KVP1 091705Z 01006KT 04/M03 A3038 RMK A01 T00401031  RH  060%=      5-min Rain = 0
KVP1 091706Z 35004KT 04/M03 A3038 RMK A01 T00401032  RH  059%=      5-min Rain = 0
KVP1 091707Z 00005KT 04/M03 A3038 RMK A01 T00421026  RH  061%=      5-min Rain = 0
KVP1 091708Z 36004KT 04/M03 A3038 RMK A01 T00441026  RH  060%=      5-min Rain = 0
KVP1 091709Z 36004KT 05/M02 A3038 RMK A01 T00451024  RH  061%=      5-min Rain = 0
KVP1 091710Z 03005KT 05/M03 A3038 RMK A01 T00461025  RH  060%=      5-min Rain = 0
KVP1 091711Z 01004KT 05/M03 A3038 RMK A01 T00471026  RH  059%=      5-min Rain = 0
KVP1 091712Z 35006KT 05/M03 A3037 RMK A01 T00471031  RH  057%=      5-min Rain = 0
KVP1 091713Z 00007KT 05/M03 A3037 RMK A01 T00451033  RH  057%=      5-min Rain = 0
KVP1 091714Z 01006KT 04/M03 A3037 RMK A01 T00441033  RH  057%=      5-min Rain = 0
KVP1 091715Z 01005KT 04/M03 A3037 RMK A01 T00441034  RH  057%=      5-min Rain = 0
KVP1 091716Z 01006KT 04/M04 A3037 RMK A01 T00441035  RH  056%=      5-min Rain = 0
KVP1 091717Z 02005KT 04/M04 A3037 RMK A01 T00431037  RH  056%=      5-min Rain = 0
KVP1 091718Z 00004KT 04/M04 A3037 RMK A01 T00421036  RH  057%=      5-min Rain = 0
KVP1 091719Z 01003KT 04/M03 A3037 RMK A01 T00421031  RH  059%=      5-min Rain = 0
KVP1 091720Z 01002KT 05/M03 A3037 RMK A01 T00451030  RH  058%=      5-min Rain = 0
KVP1 091721Z 00006KT 05/M03 A3037 RMK A01 T00461031  RH  057%=      5-min Rain = 0
KVP1 091722Z 01005KT 05/M03 A3037 RMK A01 T00481027  RH  058%=      5-min Rain = 0
KVP1 091723Z 03004KT 05/M03 A3037 RMK A01 T00501026  RH  058%=      5-min Rain = 0
KVP1 091724Z 03005KT 05/M03 A3037 RMK A01 T00511027  RH  057%=      5-min Rain = 0
KVP1 091725Z 03005KT 05/M04 A3037 RMK A01 T00501035  RH  054%=      5-min Rain = 0
KVP1 091726Z 03004KT 05/M04 A3037 RMK A01 T00471037  RH  054%=      5-min Rain = 0
KVP1 091727Z 04006KT 05/M03 A3037 RMK A01 T00481029  RH  057%=      5-min Rain = 0
KVP1 091728Z 03006KT 05/M03 A3037 RMK A01 T00501026  RH  058%=      5-min Rain = 0
KVP1 091729Z 04005KT 05/M03 A3037 RMK A01 T00511031  RH  055%=      5-min Rain = 0
KVP1 091730Z 06007KT 05/M03 A3037 RMK A01 T00501033  RH  055%=      5-min Rain = 0
KVP1 091731Z 05005KT 05/M04 A3037 RMK A01 T00491035  RH  055%=      5-min Rain = 0
KVP1 091732Z 04003KT 05/M04 A3037 RMK A01 T00471037  RH  054%=      5-min Rain = 0
KVP1 091733Z 04003KT 05/M04 A3037 RMK A01 T00471037  RH  055%=      5-min Rain = 0
KVP1 091734Z 05006KT 05/M04 A3037 RMK A01 T00471036  RH  055%=      5-min Rain = 0
KVP1 091735Z 06005KT 05/M04 A3037 RMK A01 T00481038  RH  054%=      5-min Rain = 0
KVP1 091736Z 02006KT 05/M04 A3037 RMK A01 T00491037  RH  054%=      5-min Rain = 0
KVP1 091737Z 02007KT 05/M04 A3037 RMK A01 T00501035  RH  054%=      5-min Rain = 0
KVP1 091738Z 02007KT 05/M03 A3037 RMK A01 T00521033  RH  054%=      5-min Rain = 0
KVP1 091739Z 02004KT 05/M04 A3037 RMK A01 T00521038  RH  052%=      5-min Rain = 0
KVP1 091740Z 02004KT 05/M04 A3037 RMK A01 T00511038  RH  053%=      5-min Rain = 0
KVP1 091741Z 02007KT 05/M04 A3036 RMK A01 T00531036  RH  053%=      5-min Rain = 0
KVP1 091742Z 04005KT 05/M04 A3036 RMK A01 T00521040  RH  051%=      5-min Rain = 0
KVP1 091743Z 03008KT 05/M04 A3036 RMK A01 T00521037  RH  052%=      5-min Rain = 0
KVP1 091744Z 04007KT 05/M04 A3036 RMK A01 T00521036  RH  053%=      5-min Rain = 0
KVP1 091745Z 03006KT 05/M04 A3036 RMK A01 T00521038  RH  052%=      5-min Rain = 0
KVP1 091746Z 03005KT 05/M04 A3036 RMK A01 T00531038  RH  052%=      5-min Rain = 0
KVP1 091747Z 02006KT 05/M04 A3036 RMK A01 T00521042  RH  051%=      5-min Rain = 0
KVP1 091748Z 04005KT 05/M04 A3036 RMK A01 T00511040  RH  052%=      5-min Rain = 0
KVP1 091749Z 04007KT 05/M04 A3036 RMK A01 T00531036  RH  053%=      5-min Rain = 0
KVP1 091750Z 04008KT 05/M04 A3036 RMK A01 T00541037  RH  052%=      5-min Rain = 0
KVP1 091751Z 04007KT 05/M04 A3036 RMK A01 T00541039  RH  051%=      5-min Rain = 0
KVP1 091752Z 04007KT 05/M04 A3036 RMK A01 T00541040  RH  051%=      5-min Rain = 0
KVP1 091753Z 02006KT 05/M04 A3036 RMK A01 T00521043  RH  050%=      5-min Rain = 0
KVP1 091754Z 04004KT 05/M04 A3036 RMK A01 T00511042  RH  051%=      5-min Rain = 0
KVP1 091755Z 03005KT 05/M04 A3036 RMK A01 T00531036  RH  053%=      5-min Rain = 0
KVP1 091756Z 04007KT 06/M03 A3036 RMK A01 T00561033  RH  053%=      5-min Rain = 0
KVP1 091757Z 03005KT 06/M04 A3036 RMK A01 T00571036  RH  051%=      5-min Rain = 0
KVP1 091758Z 03006KT 06/M04 A3036 RMK A01 T00571038  RH  051%=      5-min Rain = 0
KVP1 091759Z 05006KT 06/M04 A3036 RMK A01 T00571037  RH  051%=      5-min Rain = 0
KVP1 091800Z 06004KT 06/M04 A3036 RMK A01 T00571039  RH  050%=      5-min Rain = 0
KVP1 091801Z 06007KT 06/M04 A3036 RMK A01 T00561038  RH  051%=      5-min Rain = 0
KVP1 091802Z 04007KT 06/M04 A3036 RMK A01 T00571037  RH  051%=      5-min Rain = 0
KVP1 091803Z 03006KT 06/M04 A3036 RMK A01 T00561040  RH  050%=      5-min Rain = 0
KVP1 091804Z 06007KT 05/M04 A3036 RMK A01 T00541040  RH  051%=      5-min Rain = 0
KVP1 091805Z 06005KT 06/M04 A3036 RMK A01 T00551039  RH  051%=      5-min Rain = 0
KVP1 091806Z 06006KT 06/M04 A3036 RMK A01 T00551038  RH  051%=      5-min Rain = 0
KVP1 091807Z 07005KT 06/M04 A3036 RMK A01 T00571039  RH  050%=      5-min Rain = 0
KVP1 091808Z 05006KT 06/M04 A3036 RMK A01 T00561041  RH  050%=      5-min Rain = 0
KVP1 091809Z 04006KT 06/M04 A3036 RMK A01 T00561040  RH  050%=      5-min Rain = 0
KVP1 091810Z 04004KT 06/M04 A3036 RMK A01 T00561037  RH  051%=      5-min Rain = 0
KVP1 091811Z 07005KT 06/M04 A3036 RMK A01 T00571039  RH  050%=      5-min Rain = 0
KVP1 091812Z 07005KT 06/M04 A3036 RMK A01 T00561038  RH  051%=      5-min Rain = 0
KVP1 091813Z 05007KT 06/M04 A3036 RMK A01 T00571036  RH  051%=      5-min Rain = 0
KVP1 091814Z 04005KT 06/M04 A3036 RMK A01 T00581038  RH  050%=      5-min Rain = 0
KVP1 091815Z 04004KT 06/M04 A3036 RMK A01 T00571040  RH  050%=      5-min Rain = 0
KVP1 091816Z 06003KT 06/M04 A3036 RMK A01 T00551042  RH  049%=      5-min Rain = 0
KVP1 091817Z 07004KT 06/M04 A3036 RMK A01 T00551041  RH  050%=      5-min Rain = 0
KVP1 091818Z 05005KT 06/M04 A3036 RMK A01 T00551040  RH  050%=      5-min Rain = 0
KVP1 091819Z 03007KT 06/M04 A3036 RMK A01 T00561038  RH  051%=      5-min Rain = 0
KVP1 091820Z 02005KT 06/M04 A3035 RMK A01 T00561040  RH  050%=      5-min Rain = 0
KVP1 091821Z 02005KT 06/M04 A3035 RMK A01 T00561041  RH  050%=      5-min Rain = 0
KVP1 091822Z 02005KT 06/M04 A3035 RMK A01 T00551041  RH  050%=      5-min Rain = 0
KVP1 091823Z 05005KT 06/M04 A3035 RMK A01 T00561035  RH  052%=      5-min Rain = 0
KVP1 091824Z 08004KT 06/M04 A3035 RMK A01 T00581039  RH  050%=      5-min Rain = 0
KVP1 091825Z 09004KT 06/M04 A3035 RMK A01 T00571038  RH  050%=      5-min Rain = 0
KVP1 091826Z 09006KT 06/M04 A3035 RMK A01 T00591036  RH  050%=      5-min Rain = 0
KVP1 091827Z 09004KT 06/M04 A3035 RMK A01 T00581042  RH  049%=      5-min Rain = 0
KVP1 091828Z 09003KT 06/M04 A3035 RMK A01 T00561041  RH  050%=      5-min Rain = 0
KVP1 091829Z 04003KT 06/M04 A3035 RMK A01 T00581036  RH  051%=      5-min Rain = 0
KVP1 091830Z 03002KT 06/M04 A3035 RMK A01 T00601036  RH  050%=      5-min Rain = 0
KVP1 091831Z 35002KT 06/M04 A3035 RMK A01 T00601039  RH  049%=      5-min Rain = 0
KVP1 091832Z 04001KT 06/M04 A3035 RMK A01 T00591041  RH  049%=      5-min Rain = 0
KVP1 091833Z 05002KT 06/M04 A3035 RMK A01 T00581041  RH  049%=      5-min Rain = 0
KVP1 091834Z 05001KT 06/M04 A3035 RMK A01 T00571043  RH  049%=      5-min Rain = 0
KVP1 091835Z 02001KT 06/M04 A3035 RMK A01 T00571044  RH  048%=      5-min Rain = 0
KVP1 091836Z 07002KT 06/M04 A3035 RMK A01 T00581039  RH  049%=      5-min Rain = 0
KVP1 091837Z 05003KT 06/M04 A3035 RMK A01 T00611037  RH  049%=      5-min Rain = 0
KVP1 091838Z 01003KT 06/M04 A3035 RMK A01 T00611039  RH  049%=      5-min Rain = 0
KVP1 091839Z 04003KT 06/M04 A3035 RMK A01 T00611036  RH  050%=      5-min Rain = 0
KVP1 091840Z 04004KT 06/M03 A3035 RMK A01 T00631033  RH  050%=      5-min Rain = 0
KVP1 091841Z 07006KT 06/M04 A3035 RMK A01 T00641036  RH  049%=      5-min Rain = 0
KVP1 091842Z 06006KT 06/M04 A3035 RMK A01 T00631036  RH  049%=      5-min Rain = 0
KVP1 091843Z 06005KT 06/M04 A3034 RMK A01 T00621036  RH  049%=      5-min Rain = 0
KVP1 091844Z 00003KT 06/M03 A3034 RMK A01 T00631032  RH  050%=      5-min Rain = 0
KVP1 091845Z 04002KT 06/M04 A3034 RMK A01 T00621041  RH  048%=      5-min Rain = 0
KVP1 091846Z 03002KT 06/M04 A3034 RMK A01 T00601040  RH  048%=      5-min Rain = 0
KVP1 091847Z 04001KT 06/M04 A3034 RMK A01 T00611036  RH  050%=      5-min Rain = 0
KVP1 091848Z 08002KT 06/M03 A3034 RMK A01 T00641033  RH  050%=      5-min Rain = 0
KVP1 091849Z 08003KT 07/M04 A3034 RMK A01 T00651035  RH  049%=      5-min Rain = 0
KVP1 091850Z 09002KT 07/M04 A3034 RMK A01 T00651035  RH  049%=      5-min Rain = 0
KVP1 091851Z 10002KT 07/M04 A3034 RMK A01 T00661035  RH  049%=      5-min Rain = 0
KVP1 091852Z 06003KT 07/M04 A3034 RMK A01 T00661036  RH  048%=      5-min Rain = 0
KVP1 091853Z 08003KT 07/M04 A3034 RMK A01 T00651038  RH  048%=      5-min Rain = 0
KVP1 091854Z 08003KT 06/M04 A3034 RMK A01 T00631038  RH  048%=      5-min Rain = 0
KVP1 091855Z 07006KT 06/M04 A3034 RMK A01 T00621038  RH  049%=      5-min Rain = 0
KVP1 091856Z 09004KT 06/M04 A3034 RMK A01 T00641035  RH  049%=      5-min Rain = 0
KVP1 091857Z 12003KT 06/M04 A3034 RMK A01 T00641037  RH  049%=      5-min Rain = 0
KVP1 091858Z 12002KT 06/M04 A3033 RMK A01 T00641037  RH  048%=      5-min Rain = 0
KVP1 091859Z 02002KT 07/M04 A3033 RMK A01 T00651035  RH  049%=      5-min Rain = 0
KVP1 091900Z 34003KT 06/M04 A3033 RMK A01 T00641038  RH  048%=      5-min Rain = 0
KVP1 091901Z 33003KT 06/M04 A3033 RMK A01 T00621039  RH  048%=      5-min Rain = 0
KVP1 091902Z 31003KT 06/M04 A3033 RMK A01 T00621037  RH  049%=      5-min Rain = 0
KVP1 091903Z 29002KT 06/M04 A3033 RMK A01 T00621038  RH  048%=      5-min Rain = 0
KVP1 091904Z 33002KT 06/M04 A3033 RMK A01 T00631036  RH  049%=      5-min Rain = 0
KVP1 091905Z 07005KT 07/M03 A3033 RMK A01 T00651034  RH  049%=      5-min Rain = 0
KVP1 091906Z 06005KT 07/M04 A3033 RMK A01 T00651036  RH  048%=      5-min Rain = 0
KVP1 091907Z 08003KT 07/M03 A3033 RMK A01 T00651034  RH  049%=      5-min Rain = 0
KVP1 091908Z 06002KT 06/M04 A3033 RMK A01 T00641039  RH  048%=      5-min Rain = 0
KVP1 091909Z 06003KT 06/M04 A3033 RMK A01 T00631038  RH  048%=      5-min Rain = 0
KVP1 091910Z 08004KT 06/M04 A3033 RMK A01 T00621037  RH  049%=      5-min Rain = 0
KVP1 091911Z 09003KT 06/M04 A3033 RMK A01 T00631037  RH  049%=      5-min Rain = 0
KVP1 091912Z 06005KT 06/M03 A3033 RMK A01 T00641034  RH  049%=      5-min Rain = 0
KVP1 091913Z 04005KT 07/M03 A3033 RMK A01 T00681028  RH  050%=      5-min Rain = 0
KVP1 091914Z 05004KT 07/M03 A3033 RMK A01 T00691031  RH  049%=      5-min Rain = 0
KVP1 091915Z 05004KT 07/M03 A3033 RMK A01 T00691034  RH  048%=      5-min Rain = 0
KVP1 091916Z 06004KT 07/M03 A3033 RMK A01 T00681033  RH  048%=      5-min Rain = 0
KVP1 091917Z 05002KT 07/M03 A3033 RMK A01 T00681034  RH  048%=      5-min Rain = 0
KVP1 091918Z 10004KT 07/M04 A3033 RMK A01 T00681035  RH  048%=      5-min Rain = 0
KVP1 091919Z 09002KT 07/M04 A3033 RMK A01 T00671035  RH  048%=      5-min Rain = 0
KVP1 091920Z 00001KT 07/M03 A3033 RMK A01 T00691029  RH  050%=      5-min Rain = 0
KVP1 091921Z 35002KT 07/M03 A3033 RMK A01 T00711030  RH  048%=      5-min Rain = 0
KVP1 091922Z 34003KT 07/M03 A3033 RMK A01 T00721032  RH  048%=      5-min Rain = 0
KVP1 091923Z 36003KT 07/M03 A3033 RMK A01 T00721032  RH  047%=      5-min Rain = 0
KVP1 091924Z 31003KT 07/M04 A3033 RMK A01 T00711035  RH  047%=      5-min Rain = 0
KVP1 091925Z 30003KT 07/M04 A3033 RMK A01 T00701036  RH  047%=      5-min Rain = 0
KVP1 091926Z 31002KT 07/M04 A3033 RMK A01 T00691037  RH  047%=      5-min Rain = 0
KVP1 091927Z 05002KT 07/M04 A3033 RMK A01 T00681035  RH  048%=      5-min Rain = 0
KVP1 091928Z 03001KT 07/M03 A3033 RMK A01 T00691032  RH  049%=      5-min Rain = 0
KVP1 091929Z 03002KT 07/M03 A3033 RMK A01 T00701031  RH  048%=      5-min Rain = 0
KVP1 091930Z 02003KT 07/M03 A3033 RMK A01 T00721031  RH  048%=      5-min Rain = 0
KVP1 091931Z 03005KT 07/M03 A3033 RMK A01 T00731032  RH  047%=      5-min Rain = 0
KVP1 091932Z 03005KT 07/M03 A3032 RMK A01 T00731032  RH  047%=      5-min Rain = 0
KVP1 091933Z 02005KT 07/M04 A3032 RMK A01 T00721035  RH  047%=      5-min Rain = 0
KVP1 091934Z 01003KT 07/M04 A3032 RMK A01 T00721037  RH  046%=      5-min Rain = 0
KVP1 091935Z 01005KT 07/M04 A3032 RMK A01 T00711039  RH  046%=      5-min Rain = 0
KVP1 091936Z 35004KT 07/M04 A3032 RMK A01 T00711035  RH  047%=      5-min Rain = 0
KVP1 091937Z 30002KT 07/M04 A3032 RMK A01 T00721036  RH  046%=      5-min Rain = 0
KVP1 091938Z 11004KT 07/M03 A3033 RMK A01 T00721032  RH  047%=      5-min Rain = 0
KVP1 091939Z 10003KT 07/M03 A3033 RMK A01 T00731032  RH  047%=      5-min Rain = 0
KVP1 091940Z 08002KT 07/M04 A3033 RMK A01 T00711035  RH  047%=      5-min Rain = 0
KVP1 091941Z 11003KT 07/M03 A3033 RMK A01 T00691033  RH  048%=      5-min Rain = 0
KVP1 091942Z 13002KT 07/M03 A3033 RMK A01 T00711031  RH  048%=      5-min Rain = 0
KVP1 091943Z 12003KT 07/M03 A3032 RMK A01 T00731031  RH  048%=      5-min Rain = 0
KVP1 091944Z 09002KT 07/M03 A3033 RMK A01 T00731033  RH  047%=      5-min Rain = 0
KVP1 091945Z 13001KT 07/M03 A3032 RMK A01 T00721033  RH  047%=      5-min Rain = 0
KVP1 091946Z 14002KT 07/M03 A3032 RMK A01 T00731028  RH  048%=      5-min Rain = 0
KVP1 091947Z 14003KT 07/M03 A3032 RMK A01 T00741033  RH  046%=      5-min Rain = 0
KVP1 091948Z 11004KT 08/M03 A3032 RMK A01 T00751032  RH  047%=      5-min Rain = 0
KVP1 091949Z 07004KT 08/M03 A3032 RMK A01 T00771027  RH  048%=      5-min Rain = 0
KVP1 091950Z 02004KT 08/M03 A3032 RMK A01 T00811027  RH  047%=      5-min Rain = 0
KVP1 091951Z 30004KT 08/M03 A3032 RMK A01 T00831028  RH  045%=      5-min Rain = 0
KVP1 091952Z 32004KT 08/M03 A3032 RMK A01 T00841034  RH  043%=      5-min Rain = 0
KVP1 091953Z 32004KT 08/M04 A3032 RMK A01 T00811040  RH  042%=      5-min Rain = 0
KVP1 091954Z 32002KT 08/M04 A3032 RMK A01 T00781042  RH  042%=      5-min Rain = 0
KVP1 091955Z 31000KT 08/M04 A3032 RMK A01 T00761044  RH  042%=      5-min Rain = 0
KVP1 091956Z 23000KT 08/M04 A3032 RMK A01 T00761041  RH  043%=      5-min Rain = 0
KVP1 091957Z 01002KT 08/M04 A3032 RMK A01 T00791035  RH  044%=      5-min Rain = 0
KVP1 091958Z 02003KT 08/M04 A3032 RMK A01 T00801039  RH  043%=      5-min Rain = 0
KVP1 091959Z 01006KT 08/M04 A3032 RMK A01 T00811036  RH  043%=      5-min Rain = 0
KVP1 092000Z 01003KT 08/M04 A3032 RMK A01 T00801043  RH  041%=      5-min Rain = 0
KVP1 092001Z 36002KT 08/M04 A3032 RMK A01 T00781042  RH  042%=      5-min Rain = 0
KVP1 092002Z 36002KT 08/M04 A3032 RMK A01 T00781044  RH  042%=      5-min Rain = 0
KVP1 092003Z 05002KT 08/M04 A3032 RMK A01 T00771044  RH  042%=      5-min Rain = 0
KVP1 092004Z 35003KT 08/M04 A3032 RMK A01 T00771042  RH  043%=      5-min Rain = 0
KVP1 092005Z 31006KT 08/M04 A3032 RMK A01 T00781039  RH  043%=      5-min Rain = 0
KVP1 092006Z 31004KT 08/M04 A3032 RMK A01 T00791041  RH  042%=      5-min Rain = 0
KVP1 092007Z 30004KT 08/M04 A3032 RMK A01 T00781043  RH  042%=      5-min Rain = 0
KVP1 092008Z 31004KT 08/M04 A3032 RMK A01 T00771043  RH  042%=      5-min Rain = 0
KVP1 092009Z 33004KT 08/M04 A3032 RMK A01 T00771044  RH  042%=      5-min Rain = 0
KVP1 092010Z 02003KT 08/M04 A3032 RMK A01 T00771040  RH  043%=      5-min Rain = 0
KVP1 092011Z 03004KT 08/M04 A3031 RMK A01 T00791038  RH  043%=      5-min Rain = 0
KVP1 092012Z 04003KT 08/M04 A3031 RMK A01 T00791043  RH  042%=      5-min Rain = 0
KVP1 092013Z 07002KT 08/M05 A3031 RMK A01 T00761047  RH  041%=      5-min Rain = 0
KVP1 092014Z 04001KT 08/M04 A3031 RMK A01 T00751042  RH  043%=      5-min Rain = 0
KVP1 092015Z 35002KT 08/M04 A3031 RMK A01 T00781038  RH  044%=      5-min Rain = 0
KVP1 092016Z 34003KT 08/M04 A3031 RMK A01 T00801039  RH  043%=      5-min Rain = 0
KVP1 092017Z 34003KT 08/M04 A3031 RMK A01 T00821039  RH  042%=      5-min Rain = 0
KVP1 092018Z 33002KT 08/M04 A3031 RMK A01 T00811043  RH  041%=      5-min Rain = 0
KVP1 092019Z 29002KT 08/M04 A3031 RMK A01 T00791044  RH  041%=      5-min Rain = 0
KVP1 092020Z 32003KT 08/M04 A3031 RMK A01 T00781043  RH  042%=      5-min Rain = 0
KVP1 092021Z 34004KT 08/M04 A3031 RMK A01 T00781042  RH  042%=      5-min Rain = 0
KVP1 092022Z 34003KT 08/M04 A3031 RMK A01 T00771044  RH  042%=      5-min Rain = 0
KVP1 092023Z 35002KT 08/M04 A3031 RMK A01 T00771040  RH  043%=      5-min Rain = 0
KVP1 092024Z 32001KT 08/M04 A3031 RMK A01 T00771042  RH  043%=      5-min Rain = 0
KVP1 092025Z 02002KT 08/M04 A3031 RMK A01 T00781043  RH  042%=      5-min Rain = 0
KVP1 092026Z 07002KT 08/M04 A3031 RMK A01 T00781044  RH  042%=      5-min Rain = 0
KVP1 092027Z 09001KT 08/M04 A3031 RMK A01 T00781044  RH  042%=      5-min Rain = 0
KVP1 092028Z 07000KT 08/M05 A3031 RMK A01 T00781045  RH  042%=      5-min Rain = 0
KVP1 092029Z 25002KT 08/M04 A3031 RMK A01 T00781042  RH  042%=      5-min Rain = 0
KVP1 092030Z 26002KT 08/M04 A3031 RMK A01 T00801043  RH  042%=      5-min Rain = 0
KVP1 092031Z 26002KT 08/M04 A3031 RMK A01 T00801043  RH  042%=      5-min Rain = 0
KVP1 092032Z 26002KT 08/M04 A3031 RMK A01 T00811042  RH  041%=      5-min Rain = 0
KVP1 092033Z 25002KT 08/M04 A3031 RMK A01 T00831037  RH  043%=      5-min Rain = 0
KVP1 092034Z 26001KT 09/M04 A3031 RMK A01 T00871037  RH  042%=      5-min Rain = 0
KVP1 092035Z 34004KT 09/M04 A3031 RMK A01 T00871041  RH  040%=      5-min Rain = 0
KVP1 092036Z 33005KT 09/M04 A3031 RMK A01 T00861040  RH  041%=      5-min Rain = 0
KVP1 092037Z 32004KT 09/M04 A3031 RMK A01 T00851041  RH  041%=      5-min Rain = 0
KVP1 092038Z 33003KT 08/M04 A3032 RMK A01 T00841043  RH  040%=      5-min Rain = 0
KVP1 092039Z 31002KT 08/M04 A3032 RMK A01 T00831044  RH  040%=      5-min Rain = 0
KVP1 092040Z 30002KT 08/M05 A3032 RMK A01 T00821046  RH  040%=      5-min Rain = 0
KVP1 092041Z 30002KT 08/M04 A3032 RMK A01 T00821043  RH  041%=      5-min Rain = 0
KVP1 092042Z 28001KT 08/M04 A3032 RMK A01 T00821044  RH  041%=      5-min Rain = 0
KVP1 092043Z 29001KT 08/M04 A3032 RMK A01 T00831043  RH  041%=      5-min Rain = 0
KVP1 092044Z 26003KT 08/M04 A3032 RMK A01 T00831044  RH  040%=      5-min Rain = 0
KVP1 092045Z 25003KT 08/M04 A3031 RMK A01 T00831044  RH  040%=      5-min Rain = 0
KVP1 092046Z 27003KT 08/M04 A3031 RMK A01 T00831044  RH  040%=      5-min Rain = 0
KVP1 092047Z 27003KT 08/M04 A3031 RMK A01 T00841042  RH  041%=      5-min Rain = 0
KVP1 092048Z 24003KT 08/M04 A3031 RMK A01 T00841043  RH  040%=      5-min Rain = 0
KVP1 092049Z 24003KT 09/M04 A3031 RMK A01 T00851040  RH  041%=      5-min Rain = 0
KVP1 092050Z 23003KT 09/M04 A3031 RMK A01 T00861041  RH  040%=      5-min Rain = 0
KVP1 092051Z 25004KT 09/M04 A3031 RMK A01 T00871043  RH  040%=      5-min Rain = 0
KVP1 092052Z 25003KT 09/M04 A3031 RMK A01 T00861043  RH  040%=      5-min Rain = 0
KVP1 092053Z 28003KT 09/M04 A3031 RMK A01 T00861040  RH  041%=      5-min Rain = 0
KVP1 092054Z 32004KT 09/M04 A3031 RMK A01 T00891037  RH  041%=      5-min Rain = 0
KVP1 092055Z 32005KT 09/M04 A3031 RMK A01 T00891042  RH  039%=      5-min Rain = 0
KVP1 092056Z 32002KT 09/M05 A3031 RMK A01 T00891045  RH  039%=      5-min Rain = 0
KVP1 092057Z 09001KT 09/M05 A3031 RMK A01 T00871046  RH  039%=      5-min Rain = 0
KVP1 092058Z 10002KT 09/M05 A3031 RMK A01 T00871045  RH  039%=      5-min Rain = 0
KVP1 092059Z 11002KT 09/M04 A3031 RMK A01 T00881044  RH  039%=      5-min Rain = 0
KVP1 092100Z 17002KT 09/M04 A3031 RMK A01 T00891044  RH  039%=      5-min Rain = 0
KVP1 092101Z 15003KT 09/M04 A3031 RMK A01 T00911042  RH  039%=      5-min Rain = 0
KVP1 092102Z 02001KT 09/M04 A3031 RMK A01 T00921042  RH  039%=      5-min Rain = 0
KVP1 092103Z 00005KT 09/M04 A3031 RMK A01 T00921040  RH  039%=      5-min Rain = 0
KVP1 092104Z 36004KT 09/M04 A3031 RMK A01 T00921041  RH  039%=      5-min Rain = 0
KVP1 092105Z 02005KT 09/M04 A3031 RMK A01 T00901042  RH  039%=      5-min Rain = 0
KVP1 092106Z 02004KT 09/M04 A3031 RMK A01 T00891042  RH  039%=      5-min Rain = 0
KVP1 092107Z 03002KT 09/M05 A3031 RMK A01 T00871045  RH  039%=      5-min Rain = 0
KVP1 092108Z 04003KT 09/M04 A3031 RMK A01 T00861044  RH  040%=      5-min Rain = 0
KVP1 092109Z 05003KT 09/M04 A3031 RMK A01 T00861042  RH  040%=      5-min Rain = 0
KVP1 092110Z 06002KT 09/M04 A3031 RMK A01 T00871044  RH  039%=      5-min Rain = 0
KVP1 092111Z 03004KT 09/M04 A3031 RMK A01 T00861044  RH  040%=      5-min Rain = 0
KVP1 092112Z 02004KT 09/M04 A3031 RMK A01 T00861043  RH  040%=      5-min Rain = 0
KVP1 092113Z 02004KT 09/M04 A3031 RMK A01 T00851043  RH  040%=      5-min Rain = 0
KVP1 092114Z 01002KT 08/M04 A3031 RMK A01 T00841043  RH  040%=      5-min Rain = 0
KVP1 092115Z 05001KT 08/M04 A3031 RMK A01 T00841043  RH  040%=      5-min Rain = 0
KVP1 092116Z 03002KT 08/M04 A3031 RMK A01 T00841043  RH  040%=      5-min Rain = 0
KVP1 092117Z 03002KT 08/M04 A3031 RMK A01 T00841042  RH  041%=      5-min Rain = 0
KVP1 092118Z 36002KT 08/M05 A3031 RMK A01 T00841045  RH  040%=      5-min Rain = 0
KVP1 092119Z 34001KT 08/M04 A3031 RMK A01 T00841044  RH  040%=      5-min Rain = 0
KVP1 092120Z 04000KT 08/M04 A3031 RMK A01 T00841044  RH  040%=      5-min Rain = 0
KVP1 092121Z 33002KT 09/M04 A3031 RMK A01 T00861043  RH  040%=      5-min Rain = 0
KVP1 092122Z 31002KT 09/M04 A3031 RMK A01 T00861043  RH  040%=      5-min Rain = 0
KVP1 092123Z 33002KT 09/M04 A3031 RMK A01 T00881041  RH  040%=      5-min Rain = 0
KVP1 092124Z 33002KT 09/M04 A3031 RMK A01 T00891042  RH  039%=      5-min Rain = 0
KVP1 092125Z 32002KT 09/M04 A3031 RMK A01 T00891042  RH  039%=      5-min Rain = 0
KVP1 092126Z 34003KT 09/M04 A3031 RMK A01 T00891043  RH  039%=      5-min Rain = 0
KVP1 092127Z 35003KT 09/M05 A3031 RMK A01 T00891045  RH  038%=      5-min Rain = 0
KVP1 092128Z 36004KT 09/M05 A3031 RMK A01 T00891045  RH  038%=      5-min Rain = 0
KVP1 092129Z 32003KT 09/M05 A3031 RMK A01 T00891045  RH  038%=      5-min Rain = 0
KVP1 092130Z 33004KT 09/M04 A3031 RMK A01 T00891044  RH  039%=      5-min Rain = 0
KVP1 092131Z 32005KT 09/M04 A3031 RMK A01 T00891044  RH  039%=      5-min Rain = 0
KVP1 092132Z 33004KT 09/M05 A3031 RMK A01 T00891046  RH  038%=      5-min Rain = 0
KVP1 092133Z 33005KT 09/M04 A3031 RMK A01 T00891044  RH  039%=      5-min Rain = 0
KVP1 092134Z 33005KT 09/M05 A3031 RMK A01 T00891047  RH  038%=      5-min Rain = 0
KVP1 092135Z 33003KT 09/M05 A3031 RMK A01 T00871048  RH  038%=      5-min Rain = 0
KVP1 092136Z 31004KT 09/M05 A3031 RMK A01 T00861047  RH  039%=      5-min Rain = 0
KVP1 092137Z 32003KT 09/M04 A3031 RMK A01 T00871044  RH  039%=      5-min Rain = 0
KVP1 092138Z 34004KT 09/M04 A3031 RMK A01 T00891044  RH  039%=      5-min Rain = 0
KVP1 092139Z 34003KT 09/M05 A3031 RMK A01 T00901047  RH  038%=      5-min Rain = 0
KVP1 092140Z 01003KT 09/M05 A3031 RMK A01 T00901049  RH  037%=      5-min Rain = 0
KVP1 092141Z 03001KT 09/M05 A3031 RMK A01 T00901050  RH  037%=      5-min Rain = 0
KVP1 092142Z 34002KT 09/M05 A3031 RMK A01 T00901052  RH  036%=      5-min Rain = 0
KVP1 092143Z 34004KT 09/M05 A3031 RMK A01 T00891050  RH  037%=      5-min Rain = 0
KVP1 092144Z 34004KT 09/M05 A3031 RMK A01 T00901046  RH  038%=      5-min Rain = 0
KVP1 092145Z 34004KT 09/M05 A3031 RMK A01 T00901046  RH  038%=      5-min Rain = 0
KVP1 092146Z 34004KT 09/M05 A3031 RMK A01 T00911047  RH  037%=      5-min Rain = 0
KVP1 092147Z 35003KT 09/M05 A3031 RMK A01 T00901047  RH  038%=      5-min Rain = 0
KVP1 092148Z 35002KT 09/M05 A3031 RMK A01 T00901049  RH  037%=      5-min Rain = 0
KVP1 092149Z 33005KT 09/M05 A3031 RMK A01 T00901048  RH  037%=      5-min Rain = 0
KVP1 092150Z 33004KT 09/M05 A3031 RMK A01 T00901048  RH  037%=      5-min Rain = 0
KVP1 092151Z 33004KT 09/M05 A3031 RMK A01 T00891048  RH  038%=      5-min Rain = 0
KVP1 092152Z 34004KT 09/M05 A3031 RMK A01 T00891047  RH  038%=      5-min Rain = 0
KVP1 092153Z 02003KT 09/M05 A3031 RMK A01 T00891047  RH  038%=      5-min Rain = 0
KVP1 092154Z 04003KT 09/M05 A3031 RMK A01 T00891045  RH  038%=      5-min Rain = 0
KVP1 092155Z 02001KT 09/M05 A3031 RMK A01 T00891045  RH  038%=      5-min Rain = 0
KVP1 092156Z 33003KT 09/M05 A3031 RMK A01 T00911045  RH  038%=      5-min Rain = 0
KVP1 092157Z 33003KT 09/M05 A3031 RMK A01 T00911047  RH  037%=      5-min Rain = 0
KVP1 092158Z 32004KT 09/M05 A3031 RMK A01 T00911047  RH  037%=      5-min Rain = 0
KVP1 092159Z 33005KT 09/M05 A3031 RMK A01 T00911047  RH  037%=      5-min Rain = 0
KVP1 092200Z 34005KT 09/M05 A3031 RMK A01 T00911047  RH  037%=      5-min Rain = 0
KVP1 092201Z 34005KT 09/M05 A3031 RMK A01 T00921047  RH  037%=      5-min Rain = 0
KVP1 092202Z 33004KT 09/M05 A3031 RMK A01 T00921049  RH  037%=      5-min Rain = 0
KVP1 092203Z 33005KT 09/M05 A3031 RMK A01 T00911048  RH  037%=      5-min Rain = 0
KVP1 092204Z 32006KT 09/M05 A3031 RMK A01 T00921049  RH  037%=      5-min Rain = 0
KVP1 092205Z 34008KT 09/M05 A3031 RMK A01 T00921047  RH  037%=      5-min Rain = 0
KVP1 092206Z 35006KT 09/M05 A3031 RMK A01 T00921046  RH  038%=      5-min Rain = 0
KVP1 092207Z 00005KT 09/M05 A3031 RMK A01 T00911045  RH  038%=      5-min Rain = 0
KVP1 092208Z 00005KT 09/M04 A3031 RMK A01 T00901044  RH  038%=      5-min Rain = 0
KVP1 092209Z 35005KT 09/M04 A3031 RMK A01 T00911044  RH  038%=      5-min Rain = 0
KVP1 092210Z 03005KT 09/M04 A3031 RMK A01 T00911040  RH  039%=      5-min Rain = 0
KVP1 092211Z 05006KT 09/M04 A3032 RMK A01 T00911038  RH  040%=      5-min Rain = 0
KVP1 092212Z 06005KT 09/M04 A3032 RMK A01 T00891038  RH  041%=      5-min Rain = 0
KVP1 092213Z 05005KT 09/M04 A3032 RMK A01 T00881036  RH  041%=      5-min Rain = 0
KVP1 092214Z 05004KT 09/M04 A3032 RMK A01 T00881037  RH  041%=      5-min Rain = 0
KVP1 092215Z 06005KT 09/M04 A3031 RMK A01 T00871037  RH  041%=      5-min Rain = 0
KVP1 092216Z 06004KT 09/M04 A3031 RMK A01 T00871038  RH  041%=      5-min Rain = 0
KVP1 092217Z 05004KT 09/M04 A3031 RMK A01 T00871038  RH  041%=      5-min Rain = 0
KVP1 092218Z 04004KT 09/M04 A3031 RMK A01 T00871037  RH  041%=      5-min Rain = 0
KVP1 092219Z 06003KT 09/M04 A3031 RMK A01 T00871036  RH  042%=      5-min Rain = 0
KVP1 092220Z 10003KT 09/M03 A3031 RMK A01 T00871034  RH  042%=      5-min Rain = 0
KVP1 092221Z 09004KT 09/M04 A3031 RMK A01 T00871039  RH  041%=      5-min Rain = 0
KVP1 092222Z 10006KT 09/M04 A3031 RMK A01 T00871039  RH  041%=      5-min Rain = 0
KVP1 092223Z 09004KT 09/M04 A3031 RMK A01 T00871039  RH  041%=      5-min Rain = 0
KVP1 092224Z 10003KT 09/M04 A3031 RMK A01 T00871041  RH  040%=      5-min Rain = 0
KVP1 092225Z 10002KT 09/M04 A3031 RMK A01 T00871041  RH  040%=      5-min Rain = 0
KVP1 092226Z 12003KT 09/M04 A3031 RMK A01 T00871039  RH  041%=      5-min Rain = 0
KVP1 092227Z 13004KT 09/M04 A3031 RMK A01 T00871036  RH  042%=      5-min Rain = 0
KVP1 092228Z 12003KT 09/M04 A3031 RMK A01 T00871035  RH  042%=      5-min Rain = 0
KVP1 092229Z 11004KT 09/M03 A3031 RMK A01 T00871034  RH  042%=      5-min Rain = 0
KVP1 092230Z 08004KT 09/M03 A3031 RMK A01 T00871033  RH  043%=      5-min Rain = 0
KVP1 092231Z 11005KT 09/M03 A3031 RMK A01 T00861032  RH  043%=      5-min Rain = 0
KVP1 092232Z 11005KT 09/M03 A3031 RMK A01 T00851032  RH  043%=      5-min Rain = 0
KVP1 092233Z 11006KT 08/M03 A3031 RMK A01 T00841032  RH  044%=      5-min Rain = 0
KVP1 092234Z 11007KT 08/M03 A3031 RMK A01 T00831032  RH  044%=      5-min Rain = 0
KVP1 092235Z 12006KT 08/M03 A3031 RMK A01 T00831031  RH  045%=      5-min Rain = 0
KVP1 092236Z 12004KT 08/M03 A3031 RMK A01 T00821033  RH  044%=      5-min Rain = 0
KVP1 092237Z 13004KT 08/M03 A3031 RMK A01 T00811034  RH  044%=      5-min Rain = 0
KVP1 092238Z 13005KT 08/M03 A3031 RMK A01 T00811032  RH  045%=      5-min Rain = 0
KVP1 092239Z 13004KT 08/M03 A3031 RMK A01 T00821032  RH  045%=      5-min Rain = 0
KVP1 092240Z 12005KT 08/M03 A3031 RMK A01 T00811032  RH  045%=      5-min Rain = 0
KVP1 092241Z 12005KT 08/M03 A3031 RMK A01 T00811030  RH  045%=      5-min Rain = 0
KVP1 092242Z 12006KT 08/M03 A3031 RMK A01 T00811031  RH  045%=      5-min Rain = 0
KVP1 092243Z 12006KT 08/M03 A3031 RMK A01 T00801031  RH  045%=      5-min Rain = 0
KVP1 092244Z 12005KT 08/M03 A3031 RMK A01 T00791033  RH  045%=      5-min Rain = 0
KVP1 092245Z 12005KT 08/M03 A3031 RMK A01 T00791031  RH  046%=      5-min Rain = 0
KVP1 092246Z 11004KT 08/M03 A3031 RMK A01 T00791028  RH  047%=      5-min Rain = 0
KVP1 092247Z 11005KT 08/M03 A3031 RMK A01 T00791027  RH  047%=      5-min Rain = 0
KVP1 092248Z 12005KT 08/M03 A3031 RMK A01 T00781029  RH  047%=      5-min Rain = 0
KVP1 092249Z 11005KT 08/M03 A3031 RMK A01 T00781030  RH  046%=      5-min Rain = 0
KVP1 092250Z 11004KT 08/M03 A3031 RMK A01 T00771031  RH  046%=      5-min Rain = 0
KVP1 092251Z 12004KT 08/M03 A3031 RMK A01 T00771029  RH  047%=      5-min Rain = 0
KVP1 092252Z 11004KT 08/M03 A3031 RMK A01 T00771029  RH  047%=      5-min Rain = 0
KVP1 092253Z 12004KT 08/M03 A3031 RMK A01 T00761030  RH  047%=      5-min Rain = 0
KVP1 092254Z 12004KT 08/M03 A3031 RMK A01 T00761029  RH  047%=      5-min Rain = 0
KVP1 092255Z 11004KT 08/M03 A3031 RMK A01 T00761028  RH  048%=      5-min Rain = 0
KVP1 092256Z 11004KT 08/M03 A3031 RMK A01 T00751028  RH  048%=      5-min Rain = 0
KVP1 092257Z 11004KT 07/M03 A3031 RMK A01 T00741026  RH  049%=      5-min Rain = 0
KVP1 092258Z 11004KT 07/M03 A3031 RMK A01 T00741025  RH  050%=      5-min Rain = 0
KVP1 092259Z 11004KT 07/M02 A3031 RMK A01 T00731024  RH  050%=      5-min Rain = 0
KVP1 092300Z 10005KT 07/M03 A3031 RMK A01 T00731025  RH  050%=      5-min Rain = 0
KVP1 092301Z 10005KT 07/M03 A3031 RMK A01 T00721026  RH  050%=      5-min Rain = 0
KVP1 092302Z 10005KT 07/M03 A3031 RMK A01 T00711026  RH  050%=      5-min Rain = 0
KVP1 092303Z 10004KT 07/M03 A3031 RMK A01 T00701027  RH  050%=      5-min Rain = 0
KVP1 092304Z 10004KT 07/M03 A3031 RMK A01 T00701027  RH  050%=      5-min Rain = 0
KVP1 092305Z 10004KT 07/M03 A3031 RMK A01 T00691026  RH  051%=      5-min Rain = 0
KVP1 092306Z 10004KT 07/M03 A3032 RMK A01 T00681025  RH  051%=      5-min Rain = 0
KVP1 092307Z 10003KT 07/M02 A3032 RMK A01 T00671024  RH  052%=      5-min Rain = 0
KVP1 092308Z 10003KT 07/M02 A3032 RMK A01 T00661023  RH  053%=      5-min Rain = 0
KVP1 092309Z 11003KT 07/M02 A3032 RMK A01 T00661023  RH  053%=      5-min Rain = 0
KVP1 092310Z 11003KT 07/M02 A3032 RMK A01 T00651022  RH  053%=      5-min Rain = 0
KVP1 092311Z 11003KT 07/M02 A3032 RMK A01 T00651023  RH  053%=      5-min Rain = 0
KVP1 092312Z 11004KT 06/M02 A3032 RMK A01 T00641024  RH  054%=      5-min Rain = 0
KVP1 092313Z 11004KT 06/M02 A3032 RMK A01 T00631024  RH  054%=      5-min Rain = 0
KVP1 092314Z 11004KT 06/M02 A3032 RMK A01 T00631024  RH  054%=      5-min Rain = 0
KVP1 092315Z 11004KT 06/M03 A3032 RMK A01 T00621025  RH  054%=      5-min Rain = 0
KVP1 092316Z 11004KT 06/M03 A3032 RMK A01 T00611026  RH  054%=      5-min Rain = 0
KVP1 092317Z 11004KT 06/M03 A3032 RMK A01 T00611026  RH  054%=      5-min Rain = 0
KVP1 092318Z 11004KT 06/M03 A3032 RMK A01 T00601027  RH  054%=      5-min Rain = 0
KVP1 092319Z 11004KT 06/M03 A3032 RMK A01 T00591028  RH  054%=      5-min Rain = 0
KVP1 092320Z 12004KT 06/M03 A3032 RMK A01 T00581028  RH  054%=      5-min Rain = 0
KVP1 092321Z 11004KT 06/M03 A3032 RMK A01 T00571028  RH  054%=      5-min Rain = 0
KVP1 092322Z 11004KT 06/M03 A3032 RMK A01 T00571028  RH  054%=      5-min Rain = 0
KVP1 092323Z 11004KT 06/M03 A3032 RMK A01 T00561028  RH  055%=      5-min Rain = 0
KVP1 092324Z 10004KT 06/M03 A3032 RMK A01 T00551027  RH  055%=      5-min Rain = 0
KVP1 092325Z 11004KT 06/M03 A3032 RMK A01 T00551028  RH  055%=      5-min Rain = 0
KVP1 092326Z 11004KT 05/M03 A3032 RMK A01 T00541028  RH  055%=      5-min Rain = 0
KVP1 092327Z 12004KT 05/M03 A3032 RMK A01 T00531028  RH  056%=      5-min Rain = 0
KVP1 092328Z 12004KT 05/M03 A3032 RMK A01 T00531029  RH  056%=      5-min Rain = 0
KVP1 092329Z 12004KT 05/M03 A3032 RMK A01 T00531030  RH  055%=      5-min Rain = 0
KVP1 092330Z 12004KT 05/M03 A3032 RMK A01 T00531031  RH  055%=      5-min Rain = 0
KVP1 092331Z 12004KT 05/M03 A3032 RMK A01 T00521031  RH  055%=      5-min Rain = 0
KVP1 092332Z 12004KT 05/M03 A3032 RMK A01 T00501031  RH  056%=      5-min Rain = 0
KVP1 092333Z 12004KT 05/M03 A3032 RMK A01 T00481031  RH  057%=      5-min Rain = 0
KVP1 092334Z 12004KT 05/M03 A3032 RMK A01 T00461030  RH  058%=      5-min Rain = 0
KVP1 092335Z 12004KT 04/M03 A3032 RMK A01 T00441029  RH  059%=      5-min Rain = 0
KVP1 092336Z 12004KT 04/M03 A3032 RMK A01 T00431027  RH  060%=      5-min Rain = 0
KVP1 092337Z 12004KT 04/M03 A3032 RMK A01 T00421027  RH  061%=      5-min Rain = 0
KVP1 092338Z 14004KT 04/M03 A3032 RMK A01 T00421028  RH  061%=      5-min Rain = 0
KVP1 092339Z 17006KT 04/M03 A3032 RMK A01 T00411030  RH  060%=      5-min Rain = 0
KVP1 092340Z 17005KT 04/M03 A3032 RMK A01 T00401031  RH  060%=      5-min Rain = 0
KVP1 092341Z 17006KT 04/M03 A3032 RMK A01 T00381032  RH  061%=      5-min Rain = 0
KVP1 092342Z 18006KT 04/M03 A3032 RMK A01 T00351029  RH  063%=      5-min Rain = 0
KVP1 092343Z 18007KT 03/M03 A3032 RMK A01 T00341027  RH  064%=      5-min Rain = 0
KVP1 092344Z 18007KT 03/M03 A3032 RMK A01 T00311027  RH  065%=      5-min Rain = 0
KVP1 092345Z 18007KT 03/M03 A3032 RMK A01 T00291026  RH  067%=      5-min Rain = 0
KVP1 092346Z 18007KT 03/M02 A3032 RMK A01 T00271024  RH  069%=      5-min Rain = 0
KVP1 092347Z 18007KT 03/M02 A3032 RMK A01 T00261023  RH  070%=      5-min Rain = 0
KVP1 092348Z 19007KT 03/M02 A3032 RMK A01 T00251022  RH  071%=      5-min Rain = 0
KVP1 092349Z 19007KT 02/M02 A3032 RMK A01 T00241020  RH  073%=      5-min Rain = 0
KVP1 092350Z 19007KT 02/M02 A3032 RMK A01 T00221021  RH  073%=      5-min Rain = 0
KVP1 092351Z 19007KT 02/M02 A3032 RMK A01 T00201021  RH  074%=      5-min Rain = 0
KVP1 092352Z 19008KT 02/M02 A3032 RMK A01 T00181021  RH  075%=      5-min Rain = 0
KVP1 092353Z 19007KT 02/M02 A3032 RMK A01 T00171022  RH  076%=      5-min Rain = 0
KVP1 092354Z 19007KT 02/M02 A3032 RMK A01 T00151022  RH  077%=      5-min Rain = 0
KVP1 092355Z 20007KT 01/M02 A3033 RMK A01 T00141022  RH  077%=      5-min Rain = 0
KVP1 092356Z 20007KT 01/M02 A3033 RMK A01 T00121022  RH  078%=      5-min Rain = 0
KVP1 092357Z 20007KT 01/M02 A3033 RMK A01 T00111022  RH  078%=      5-min Rain = 0
KVP1 092358Z 20007KT 01/M02 A3033 RMK A01 T00111022  RH  079%=      5-min Rain = 0
KVP1 092359Z 20007KT 01/M02 A3033 RMK A01 T00101022  RH  079%=      5-min Rain = 0
KVP1 100000Z 20008KT 01/M02 A3033 RMK A01 T00091021  RH  080%=      5-min Rain = 0
KVP1 100001Z 19008KT 01/M02 A3032 RMK A01 T00091022  RH  080%=      5-min Rain = 0
KVP1 100002Z 19008KT 01/M02 A3032 RMK A01 T00081022  RH  080%=      5-min Rain = 0
KVP1 100003Z 19008KT 01/M02 A3033 RMK A01 T00081023  RH  080%=      5-min Rain = 0
KVP1 100004Z 19008KT 01/M02 A3033 RMK A01 T00071022  RH  081%=      5-min Rain = 0
KVP1 100005Z 20008KT 01/M02 A3033 RMK A01 T00061023  RH  081%=      5-min Rain = 0
KVP1 100006Z 20008KT 01/M02 A3033 RMK A01 T00061023  RH  081%=      5-min Rain = 0
KVP1 100007Z 20008KT 01/M02 A3033 RMK A01 T00051023  RH  081%=      5-min Rain = 0
KVP1 100008Z 20008KT 01/M02 A3033 RMK A01 T00051023  RH  081%=      5-min Rain = 0
KVP1 100009Z 20008KT 01/M02 A3033 RMK A01 T00051023  RH  082%=      5-min Rain = 0
KVP1 100010Z 20008KT 00/M02 A3033 RMK A01 T00041024  RH  082%=      5-min Rain = 0
KVP1 100011Z 20008KT 00/M02 A3033 RMK A01 T00041024  RH  082%=      5-min Rain = 0
KVP1 100012Z 20008KT 00/M02 A3033 RMK A01 T00041024  RH  082%=      5-min Rain = 0
KVP1 100013Z 20008KT 00/M02 A3034 RMK A01 T00031024  RH  082%=      5-min Rain = 0
KVP1 100014Z 20008KT 00/M02 A3034 RMK A01 T00031024  RH  082%=      5-min Rain = 0
KVP1 100015Z 20008KT 00/M03 A3034 RMK A01 T00021025  RH  082%=      5-min Rain = 0
KVP1 100016Z 20008KT 00/M03 A3034 RMK A01 T00021025  RH  082%=      5-min Rain = 0
KVP1 100017Z 20008KT 00/M03 A3034 RMK A01 T00011025  RH  082%=      5-min Rain = 0
KVP1 100018Z 20007KT 00/M03 A3034 RMK A01 T00011026  RH  082%=      5-min Rain = 0
KVP1 100019Z 20008KT 00/03 A3034 RMK A01 T00-00-26  RH  082%=      5-min Rain = 0
KVP1 100020Z 20007KT M00/M03 A3034 RMK A01 T10011027  RH  083%=      5-min Rain = 0
KVP1 100021Z 20007KT M00/M03 A3034 RMK A01 T10011026  RH  083%=      5-min Rain = 0
KVP1 100022Z 20007KT M00/M03 A3034 RMK A01 T10021027  RH  083%=      5-min Rain = 0
KVP1 100023Z 21007KT M00/M03 A3034 RMK A01 T10021027  RH  083%=      5-min Rain = 0
KVP1 100024Z 21007KT M00/M03 A3034 RMK A01 T10031028  RH  083%=      5-min Rain = 0
KVP1 100025Z 21007KT M00/M03 A3034 RMK A01 T10031028  RH  084%=      5-min Rain = 0
KVP1 100026Z 21007KT M00/M03 A3034 RMK A01 T10041028  RH  084%=      5-min Rain = 0
KVP1 100027Z 21007KT M01/M03 A3034 RMK A01 T10051029  RH  084%=      5-min Rain = 0
KVP1 100028Z 21008KT M01/M03 A3034 RMK A01 T10061029  RH  084%=      5-min Rain = 0
KVP1 100029Z 21008KT M01/M03 A3034 RMK A01 T10071030  RH  084%=      5-min Rain = 0
KVP1 100030Z 21008KT M01/M03 A3034 RMK A01 T10071030  RH  085%=      5-min Rain = 0
KVP1 100031Z 21008KT M01/M03 A3034 RMK A01 T10081030  RH  085%=      5-min Rain = 0
KVP1 100032Z 21007KT M01/M03 A3035 RMK A01 T10081030  RH  085%=      5-min Rain = 0
KVP1 100033Z 21007KT M01/M03 A3035 RMK A01 T10081030  RH  085%=      5-min Rain = 0
KVP1 100034Z 21008KT M01/M03 A3035 RMK A01 T10091030  RH  085%=      5-min Rain = 0
KVP1 100035Z 21008KT M01/M03 A3035 RMK A01 T10091030  RH  086%=      5-min Rain = 0
KVP1 100036Z 21007KT M01/M03 A3035 RMK A01 T10091030  RH  086%=      5-min Rain = 0
KVP1 100037Z 21008KT M01/M03 A3035 RMK A01 T10101030  RH  086%=      5-min Rain = 0
KVP1 100038Z 21007KT M01/M03 A3035 RMK A01 T10101029  RH  086%=      5-min Rain = 0
KVP1 100039Z 22007KT M01/M03 A3035 RMK A01 T10101030  RH  086%=      5-min Rain = 0
KVP1 100040Z 22008KT M01/M03 A3035 RMK A01 T10101030  RH  086%=      5-min Rain = 0
KVP1 100041Z 22008KT M01/M03 A3034 RMK A01 T10091029  RH  087%=      5-min Rain = 0
KVP1 100042Z 22008KT M01/M03 A3034 RMK A01 T10101030  RH  086%=      5-min Rain = 0
KVP1 100043Z 22008KT M01/M03 A3034 RMK A01 T10101029  RH  087%=      5-min Rain = 0
KVP1 100044Z 22008KT M01/M03 A3035 RMK A01 T10111030  RH  087%=      5-min Rain = 0
KVP1 100045Z 22008KT M01/M03 A3035 RMK A01 T10111031  RH  087%=      5-min Rain = 0
KVP1 100046Z 22008KT M01/M03 A3035 RMK A01 T10111030  RH  087%=      5-min Rain = 0
KVP1 100047Z 22008KT M01/M03 A3035 RMK A01 T10111030  RH  087%=      5-min Rain = 0
KVP1 100048Z 22008KT M01/M03 A3035 RMK A01 T10121030  RH  087%=      5-min Rain = 0
KVP1 100049Z 22008KT M01/M03 A3035 RMK A01 T10121030  RH  087%=      5-min Rain = 0
KVP1 100050Z 22008KT M01/M03 A3035 RMK A01 T10121031  RH  087%=      5-min Rain = 0
KVP1 100051Z 22008KT M01/M03 A3035 RMK A01 T10121030  RH  087%=      5-min Rain = 0
KVP1 100052Z 22008KT M01/M03 A3035 RMK A01 T10121030  RH  088%=      5-min Rain = 0
KVP1 100053Z 22008KT M01/M03 A3035 RMK A01 T10121030  RH  088%=      5-min Rain = 0
KVP1 100054Z 21007KT M01/M03 A3035 RMK A01 T10121030  RH  088%=      5-min Rain = 0
KVP1 100055Z 22007KT M01/M03 A3035 RMK A01 T10121030  RH  088%=      5-min Rain = 0
KVP1 100056Z 22008KT M01/M03 A3035 RMK A01 T10121030  RH  088%=      5-min Rain = 0
KVP1 100057Z 22008KT M01/M03 A3035 RMK A01 T10121030  RH  088%=      5-min Rain = 0
KVP1 100058Z 22008KT M01/M03 A3035 RMK A01 T10121031  RH  088%=      5-min Rain = 0
KVP1 100059Z 22008KT M01/M03 A3035 RMK A01 T10121030  RH  088%=      5-min Rain = 0
KVP1 100100Z 22008KT M01/M03 A3035 RMK A01 T10121030  RH  088%=      5-min Rain = 0
KVP1 100101Z 22007KT M01/M03 A3035 RMK A01 T10121030  RH  087%=      5-min Rain = 0
KVP1 100102Z 22008KT M01/M03 A3035 RMK A01 T10101027  RH  089%=      5-min Rain = 0
KVP1 100103Z 22008KT M01/M03 A3035 RMK A01 T10091027  RH  088%=      5-min Rain = 0
KVP1 100104Z 22007KT M01/M03 A3035 RMK A01 T10091027  RH  087%=      5-min Rain = 0
KVP1 100105Z 22008KT M01/M03 A3035 RMK A01 T10081027  RH  087%=      5-min Rain = 0
KVP1 100106Z 22008KT M01/M03 A3035 RMK A01 T10081028  RH  086%=      5-min Rain = 0
KVP1 100107Z 22007KT M01/M03 A3035 RMK A01 T10091030  RH  086%=      5-min Rain = 0
KVP1 100108Z 22008KT M01/M03 A3035 RMK A01 T10101031  RH  086%=      5-min Rain = 0
KVP1 100109Z 22007KT M01/M03 A3035 RMK A01 T10121032  RH  086%=      5-min Rain = 0
KVP1 100110Z 23007KT M01/M03 A3035 RMK A01 T10131033  RH  087%=      5-min Rain = 0
KVP1 100111Z 23007KT M01/M03 A3035 RMK A01 T10141032  RH  087%=      5-min Rain = 0
KVP1 100112Z 23007KT M01/M03 A3035 RMK A01 T10141032  RH  087%=      5-min Rain = 0
KVP1 100113Z 23008KT M02/M03 A3035 RMK A01 T10151033  RH  087%=      5-min Rain = 0
KVP1 100114Z 23007KT M02/M03 A3035 RMK A01 T10151034  RH  087%=      5-min Rain = 0
KVP1 100115Z 23007KT M02/M03 A3035 RMK A01 T10161034  RH  088%=      5-min Rain = 0
KVP1 100116Z 23007KT M02/M04 A3035 RMK A01 T10171035  RH  088%=      5-min Rain = 0
KVP1 100117Z 23008KT M02/M04 A3035 RMK A01 T10181035  RH  088%=      5-min Rain = 0
KVP1 100118Z 23008KT M02/M04 A3035 RMK A01 T10191036  RH  088%=      5-min Rain = 0
KVP1 100119Z 23008KT M02/M04 A3035 RMK A01 T10191035  RH  089%=      5-min Rain = 0
KVP1 100120Z 23008KT M02/M04 A3035 RMK A01 T10201035  RH  089%=      5-min Rain = 0
KVP1 100121Z 24009KT M02/M04 A3035 RMK A01 T10201035  RH  089%=      5-min Rain = 0
KVP1 100122Z 23009KT M02/M04 A3035 RMK A01 T10191035  RH  089%=      5-min Rain = 0
KVP1 100123Z 23009KT M02/M03 A3035 RMK A01 T10191034  RH  090%=      5-min Rain = 0
KVP1 100124Z 23009KT M02/M03 A3035 RMK A01 T10181033  RH  090%=      5-min Rain = 0
KVP1 100125Z 23008KT M02/M03 A3035 RMK A01 T10181033  RH  090%=      5-min Rain = 0
KVP1 100126Z 23009KT M02/M03 A3035 RMK A01 T10171032  RH  089%=      5-min Rain = 0
KVP1 100127Z 23008KT M02/M03 A3035 RMK A01 T10171032  RH  089%=      5-min Rain = 0
KVP1 100128Z 23008KT M02/M03 A3035 RMK A01 T10161031  RH  090%=      5-min Rain = 0
KVP1 100129Z 23008KT M02/M03 A3035 RMK A01 T10151030  RH  089%=      5-min Rain = 0
KVP1 100130Z 23008KT M02/M03 A3035 RMK A01 T10151031  RH  089%=      5-min Rain = 0
KVP1 100131Z 23008KT M02/M03 A3035 RMK A01 T10151031  RH  089%=      5-min Rain = 0
KVP1 100132Z 23007KT M02/M03 A3035 RMK A01 T10151031  RH  089%=      5-min Rain = 0
KVP1 100133Z 23007KT M02/M03 A3035 RMK A01 T10151031  RH  089%=      5-min Rain = 0
KVP1 100134Z 23007KT M02/M03 A3035 RMK A01 T10161032  RH  089%=      5-min Rain = 0
KVP1 100135Z 23007KT M02/M03 A3035 RMK A01 T10161033  RH  089%=      5-min Rain = 0
KVP1 100136Z 23006KT M02/M03 A3035 RMK A01 T10171033  RH  089%=      5-min Rain = 0
KVP1 100137Z 23006KT M02/M03 A3035 RMK A01 T10171032  RH  089%=      5-min Rain = 0
KVP1 100138Z 23007KT M02/M03 A3035 RMK A01 T10171032  RH  089%=      5-min Rain = 0
KVP1 100139Z 23007KT M02/M03 A3035 RMK A01 T10171033  RH  089%=      5-min Rain = 0
KVP1 100140Z 23007KT M02/M03 A3035 RMK A01 T10181033  RH  089%=      5-min Rain = 0
KVP1 100141Z 23007KT M02/M03 A3035 RMK A01 T10181033  RH  090%=      5-min Rain = 0
KVP1 100142Z 23007KT M02/M03 A3035 RMK A01 T10181033  RH  090%=      5-min Rain = 0
KVP1 100143Z 23007KT M02/M03 A3035 RMK A01 T10191033  RH  090%=      5-min Rain = 0
KVP1 100144Z 23007KT M02/M03 A3035 RMK A01 T10191034  RH  090%=      5-min Rain = 0
KVP1 100145Z 23007KT M02/M04 A3035 RMK A01 T10201035  RH  090%=      5-min Rain = 0
KVP1 100146Z 23007KT M02/M04 A3035 RMK A01 T10201035  RH  090%=      5-min Rain = 0
KVP1 100147Z 24007KT M02/M04 A3036 RMK A01 T10211035  RH  090%=      5-min Rain = 0
KVP1 100148Z 23007KT M02/M04 A3036 RMK A01 T10221036  RH  090%=      5-min Rain = 0
KVP1 100149Z 24007KT M02/M04 A3036 RMK A01 T10221036  RH  090%=      5-min Rain = 0
KVP1 100150Z 24007KT M02/M04 A3036 RMK A01 T10231037  RH  090%=      5-min Rain = 0
KVP1 100151Z 24008KT M02/M04 A3036 RMK A01 T10231036  RH  091%=      5-min Rain = 0
KVP1 100152Z 24007KT M02/M04 A3036 RMK A01 T10231036  RH  091%=      5-min Rain = 0
KVP1 100153Z 24007KT M02/M04 A3036 RMK A01 T10231036  RH  091%=      5-min Rain = 0
KVP1 100154Z 24007KT M02/M04 A3036 RMK A01 T10231035  RH  091%=      5-min Rain = 0
KVP1 100155Z 24007KT M02/M04 A3036 RMK A01 T10231035  RH  091%=      5-min Rain = 0
KVP1 100156Z 24007KT M02/M03 A3036 RMK A01 T10221034  RH  091%=      5-min Rain = 0
KVP1 100157Z 24008KT M02/M03 A3036 RMK A01 T10221034  RH  091%=      5-min Rain = 0
KVP1 100158Z 24007KT M02/M03 A3036 RMK A01 T10211034  RH  091%=      5-min Rain = 0
KVP1 100159Z 24007KT M02/M03 A3036 RMK A01 T10211034  RH  091%=      5-min Rain = 0
KVP1 100200Z 24007KT M02/M03 A3036 RMK A01 T10201033  RH  091%=      5-min Rain = 0
KVP1 100201Z 24007KT M02/M03 A3035 RMK A01 T10201034  RH  091%=      5-min Rain = 0
KVP1 100202Z 24007KT M02/M03 A3035 RMK A01 T10211034  RH  091%=      5-min Rain = 0
KVP1 100203Z 24007KT M02/M03 A3035 RMK A01 T10211034  RH  091%=      5-min Rain = 0
KVP1 100204Z 24007KT M02/M03 A3035 RMK A01 T10211033  RH  091%=      5-min Rain = 0
KVP1 100205Z 24007KT M02/M03 A3035 RMK A01 T10211033  RH  091%=      5-min Rain = 0
KVP1 100206Z 24007KT M02/M03 A3035 RMK A01 T10211034  RH  091%=      5-min Rain = 0
KVP1 100207Z 24007KT M02/M03 A3036 RMK A01 T10211034  RH  091%=      5-min Rain = 0
KVP1 100208Z 24008KT M02/M03 A3036 RMK A01 T10211034  RH  091%=      5-min Rain = 0
KVP1 100209Z 24007KT M02/M03 A3036 RMK A01 T10211034  RH  091%=      5-min Rain = 0
KVP1 100210Z 24008KT M02/M03 A3036 RMK A01 T10211034  RH  091%=      5-min Rain = 0
KVP1 100211Z 24008KT M02/M03 A3036 RMK A01 T10211034  RH  091%=      5-min Rain = 0
KVP1 100212Z 24008KT M02/M03 A3036 RMK A01 T10221034  RH  091%=      5-min Rain = 0
KVP1 100213Z 24008KT M02/M03 A3036 RMK A01 T10221034  RH  091%=      5-min Rain = 0
KVP1 100214Z 24007KT M02/M03 A3036 RMK A01 T10221034  RH  091%=      5-min Rain = 0
KVP1 100215Z 24007KT M02/M03 A3036 RMK A01 T10221034  RH  091%=      5-min Rain = 0
KVP1 100216Z 24007KT M02/M03 A3036 RMK A01 T10221034  RH  091%=      5-min Rain = 0
KVP1 100217Z 24007KT M02/M03 A3036 RMK A01 T10211034  RH  091%=      5-min Rain = 0
KVP1 100218Z 24007KT M02/M03 A3036 RMK A01 T10211034  RH  091%=      5-min Rain = 0
KVP1 100219Z 24007KT M02/M03 A3036 RMK A01 T10211034  RH  091%=      5-min Rain = 0
KVP1 100220Z 24007KT M02/M03 A3036 RMK A01 T10211034  RH  091%=      5-min Rain = 0
KVP1 100221Z 24007KT M02/M03 A3036 RMK A01 T10211034  RH  091%=      5-min Rain = 0
KVP1 100222Z 24007KT M02/M03 A3036 RMK A01 T10211034  RH  091%=      5-min Rain = 0
KVP1 100223Z 24007KT M02/M04 A3036 RMK A01 T10221035  RH  091%=      5-min Rain = 0
KVP1 100224Z 24007KT M02/M04 A3036 RMK A01 T10231036  RH  091%=      5-min Rain = 0
KVP1 100225Z 24007KT M02/M04 A3036 RMK A01 T10231036  RH  091%=      5-min Rain = 0
KVP1 100226Z 24007KT M02/M04 A3036 RMK A01 T10241036  RH  091%=      5-min Rain = 0
KVP1 100227Z 24006KT M03/M04 A3036 RMK A01 T10251037  RH  091%=      5-min Rain = 0
KVP1 100228Z 24007KT M03/M04 A3036 RMK A01 T10251038  RH  091%=      5-min Rain = 0
KVP1 100229Z 24007KT M03/M04 A3036 RMK A01 T10261038  RH  091%=      5-min Rain = 0
KVP1 100230Z 24007KT M03/M04 A3036 RMK A01 T10261038  RH  092%=      5-min Rain = 0
KVP1 100231Z 24007KT M03/M04 A3036 RMK A01 T10261038  RH  092%=      5-min Rain = 0
KVP1 100232Z 24006KT M03/M04 A3036 RMK A01 T10271039  RH  092%=      5-min Rain = 0
KVP1 100233Z 24006KT M03/M04 A3036 RMK A01 T10271039  RH  092%=      5-min Rain = 0
KVP1 100234Z 24006KT M03/M04 A3036 RMK A01 T10271039  RH  092%=      5-min Rain = 0
KVP1 100235Z 24006KT M03/M04 A3036 RMK A01 T10281039  RH  092%=      5-min Rain = 0
KVP1 100236Z 24006KT M03/M04 A3036 RMK A01 T10281039  RH  092%=      5-min Rain = 0
KVP1 100237Z 25006KT M03/M04 A3036 RMK A01 T10281038  RH  092%=      5-min Rain = 0
KVP1 100238Z 25006KT M03/M04 A3036 RMK A01 T10281038  RH  093%=      5-min Rain = 0
KVP1 100239Z 25006KT M03/M04 A3036 RMK A01 T10281038  RH  093%=      5-min Rain = 0
KVP1 100240Z 25006KT M03/M04 A3036 RMK A01 T10281038  RH  093%=      5-min Rain = 0
KVP1 100241Z 25006KT M03/M04 A3036 RMK A01 T10281038  RH  093%=      5-min Rain = 0
KVP1 100242Z 25006KT M03/M04 A3036 RMK A01 T10281038  RH  093%=      5-min Rain = 0
KVP1 100243Z 25007KT M03/M04 A3036 RMK A01 T10281037  RH  093%=      5-min Rain = 0
KVP1 100244Z 25007KT M03/M04 A3036 RMK A01 T10281038  RH  093%=      5-min Rain = 0
KVP1 100245Z 25007KT M03/M04 A3036 RMK A01 T10291039  RH  093%=      5-min Rain = 0
KVP1 100246Z 25007KT M03/M04 A3036 RMK A01 T10301040  RH  092%=      5-min Rain = 0
KVP1 100247Z 25007KT M03/M04 A3036 RMK A01 T10301040  RH  093%=      5-min Rain = 0
KVP1 100248Z 25007KT M03/M04 A3036 RMK A01 T10301040  RH  093%=      5-min Rain = 0
KVP1 100249Z 25007KT M03/M04 A3036 RMK A01 T10301040  RH  093%=      5-min Rain = 0
KVP1 100250Z 25007KT M03/M04 A3036 RMK A01 T10311041  RH  093%=      5-min Rain = 0
KVP1 100251Z 25007KT M03/M04 A3036 RMK A01 T10311041  RH  093%=      5-min Rain = 0
KVP1 100252Z 25007KT M03/M04 A3036 RMK A01 T10311041  RH  093%=      5-min Rain = 0
KVP1 100253Z 25007KT M03/M04 A3036 RMK A01 T10311040  RH  093%=      5-min Rain = 0
KVP1 100254Z 25007KT M03/M04 A3036 RMK A01 T10311040  RH  093%=      5-min Rain = 0
KVP1 100255Z 25008KT M03/M04 A3036 RMK A01 T10301040  RH  093%=      5-min Rain = 0
KVP1 100256Z 24008KT M03/M04 A3036 RMK A01 T10301040  RH  093%=      5-min Rain = 0
KVP1 100257Z 24008KT M03/M04 A3036 RMK A01 T10311041  RH  093%=      5-min Rain = 0
KVP1 100258Z 24008KT M03/M04 A3036 RMK A01 T10301040  RH  093%=      5-min Rain = 0
KVP1 100259Z 25007KT M03/M04 A3036 RMK A01 T10301040  RH  093%=      5-min Rain = 0
KVP1 100300Z 25007KT M03/M04 A3036 RMK A01 T10301040  RH  093%=      5-min Rain = 0
KVP1 100301Z 26007KT M03/M04 A3036 RMK A01 T10301040  RH  093%=      5-min Rain = 0
KVP1 100302Z 26007KT M03/M04 A3036 RMK A01 T10301040  RH  093%=      5-min Rain = 0
KVP1 100303Z 27007KT M03/M04 A3037 RMK A01 T10291040  RH  093%=      5-min Rain = 0
KVP1 100304Z 27007KT M03/M04 A3037 RMK A01 T10291039  RH  093%=      5-min Rain = 0
KVP1 100305Z 27007KT M03/M04 A3037 RMK A01 T10291039  RH  093%=      5-min Rain = 0
KVP1 100306Z 27007KT M03/M04 A3037 RMK A01 T10281039  RH  092%=      5-min Rain = 0
KVP1 100307Z 27007KT M03/M04 A3037 RMK A01 T10281039  RH  092%=      5-min Rain = 0
KVP1 100308Z 27007KT M03/M04 A3037 RMK A01 T10281039  RH  092%=      5-min Rain = 0
KVP1 100309Z 27007KT M03/M04 A3037 RMK A01 T10281039  RH  092%=      5-min Rain = 0
KVP1 100310Z 28006KT M03/M04 A3037 RMK A01 T10281039  RH  092%=      5-min Rain = 0
KVP1 100311Z 28006KT M03/M04 A3037 RMK A01 T10281039  RH  092%=      5-min Rain = 0
KVP1 100312Z 27006KT M03/M04 A3037 RMK A01 T10281039  RH  092%=      5-min Rain = 0
KVP1 100313Z 27006KT M03/M04 A3037 RMK A01 T10281039  RH  092%=      5-min Rain = 0
KVP1 100314Z 27006KT M03/M04 A3037 RMK A01 T10281039  RH  092%=      5-min Rain = 0
KVP1 100315Z 27006KT M03/M04 A3037 RMK A01 T10281039  RH  092%=      5-min Rain = 0
KVP1 100316Z 27006KT M03/M04 A3037 RMK A01 T10281039  RH  092%=      5-min Rain = 0
KVP1 100317Z 28005KT M03/M04 A3037 RMK A01 T10281040  RH  092%=      5-min Rain = 0
KVP1 100318Z 28005KT M03/M04 A3037 RMK A01 T10291041  RH  091%=      5-min Rain = 0
KVP1 100319Z 28005KT M03/M04 A3037 RMK A01 T10301042  RH  091%=      5-min Rain = 0
KVP1 100320Z 28005KT M03/M04 A3037 RMK A01 T10301042  RH  092%=      5-min Rain = 0
KVP1 100321Z 28005KT M03/M04 A3037 RMK A01 T10301041  RH  092%=      5-min Rain = 0
KVP1 100322Z 27006KT M03/M04 A3037 RMK A01 T10301041  RH  092%=      5-min Rain = 0
KVP1 100323Z 26006KT M03/M04 A3037 RMK A01 T10301041  RH  092%=      5-min Rain = 0
KVP1 100324Z 26006KT M03/M04 A3037 RMK A01 T10311042  RH  092%=      5-min Rain = 0
KVP1 100325Z 26006KT M03/M04 A3037 RMK A01 T10311042  RH  092%=      5-min Rain = 0
KVP1 100326Z 26005KT M03/M04 A3037 RMK A01 T10311041  RH  092%=      5-min Rain = 0
KVP1 100327Z 26005KT M03/M04 A3037 RMK A01 T10311042  RH  092%=      5-min Rain = 0
KVP1 100328Z 27005KT M03/M04 A3037 RMK A01 T10321042  RH  092%=      5-min Rain = 0
KVP1 100329Z 27005KT M03/M04 A3037 RMK A01 T10321042  RH  093%=      5-min Rain = 0
KVP1 100330Z 27005KT M03/M04 A3037 RMK A01 T10321042  RH  093%=      5-min Rain = 0
KVP1 100331Z 27005KT M03/M04 A3036 RMK A01 T10321042  RH  093%=      5-min Rain = 0
KVP1 100332Z 27005KT M03/M04 A3036 RMK A01 T10321041  RH  093%=      5-min Rain = 0
KVP1 100333Z 27005KT M03/M04 A3036 RMK A01 T10321041  RH  093%=      5-min Rain = 0
KVP1 100334Z 26005KT M03/M04 A3036 RMK A01 T10311040  RH  094%=      5-min Rain = 0
KVP1 100335Z 26004KT M03/M04 A3036 RMK A01 T10311040  RH  094%=      5-min Rain = 0
KVP1 100336Z 25004KT M03/M04 A3036 RMK A01 T10311040  RH  094%=      5-min Rain = 0
KVP1 100337Z 25004KT M03/M04 A3036 RMK A01 T10311040  RH  094%=      5-min Rain = 0
KVP1 100338Z 24004KT M03/M04 A3036 RMK A01 T10321041  RH  094%=      5-min Rain = 0
KVP1 100339Z 24004KT M03/M04 A3035 RMK A01 T10321041  RH  094%=      5-min Rain = 0
KVP1 100340Z 24004KT M03/M04 A3035 RMK A01 T10321041  RH  094%=      5-min Rain = 0
KVP1 100341Z 24005KT M03/M04 A3035 RMK A01 T10331042  RH  094%=      5-min Rain = 0
KVP1 100342Z 24005KT M03/M04 A3035 RMK A01 T10341043  RH  093%=      5-min Rain = 0
KVP1 100343Z 24005KT M04/M04 A3036 RMK A01 T10351044  RH  093%=      5-min Rain = 0
KVP1 100344Z 24004KT M04/M05 A3036 RMK A01 T10361045  RH  093%=      5-min Rain = 0
KVP1 100345Z 24004KT M04/M05 A3036 RMK A01 T10361045  RH  093%=      5-min Rain = 0
KVP1 100346Z 24004KT M04/M05 A3036 RMK A01 T10371046  RH  094%=      5-min Rain = 0
KVP1 100347Z 24004KT M04/M05 A3036 RMK A01 T10371046  RH  094%=      5-min Rain = 0
KVP1 100348Z 24004KT M04/M05 A3036 RMK A01 T10371045  RH  094%=      5-min Rain = 0
KVP1 100349Z 25004KT M04/M05 A3036 RMK A01 T10371045  RH  094%=      5-min Rain = 0
KVP1 100350Z 25005KT M04/M05 A3036 RMK A01 T10371045  RH  094%=      5-min Rain = 0
KVP1 100351Z 26005KT M04/M05 A3036 RMK A01 T10371045  RH  094%=      5-min Rain = 0
KVP1 100352Z 26005KT M04/M04 A3036 RMK A01 T10371044  RH  095%=      5-min Rain = 0
KVP1 100353Z 26005KT M04/M04 A3036 RMK A01 T10361043  RH  095%=      5-min Rain = 0
KVP1 100354Z 27005KT M04/M04 A3036 RMK A01 T10361043  RH  095%=      5-min Rain = 0
KVP1 100355Z 27004KT M04/M04 A3036 RMK A01 T10361043  RH  095%=      5-min Rain = 0
KVP1 100356Z 28005KT M04/M04 A3037 RMK A01 T10361043  RH  095%=      5-min Rain = 0
KVP1 100357Z 28005KT M04/M04 A3037 RMK A01 T10361043  RH  095%=      5-min Rain = 0
KVP1 100358Z 28005KT M04/M04 A3037 RMK A01 T10361042  RH  095%=      5-min Rain = 0
KVP1 100359Z 29005KT M04/M04 A3037 RMK A01 T10351041  RH  096%=      5-min Rain = 0
KVP1 100400Z 28005KT M03/M04 A3037 RMK A01 T10341041  RH  095%=      5-min Rain = 0
KVP1 100401Z 28005KT M03/M04 A3037 RMK A01 T10341041  RH  095%=      5-min Rain = 0
KVP1 100402Z 27005KT M03/M04 A3037 RMK A01 T10341041  RH  095%=      5-min Rain = 0
KVP1 100403Z 26007KT M03/M04 A3037 RMK A01 T10341043  RH  094%=      5-min Rain = 0
KVP1 100404Z 26006KT M04/M05 A3037 RMK A01 T10371047  RH  092%=      5-min Rain = 0
KVP1 100405Z 26005KT M04/M05 A3037 RMK A01 T10391051  RH  092%=      5-min Rain = 0
KVP1 100406Z 26005KT M04/M05 A3037 RMK A01 T10411052  RH  092%=      5-min Rain = 0
KVP1 100407Z 26005KT M04/M05 A3037 RMK A01 T10411051  RH  093%=      5-min Rain = 0
KVP1 100408Z 26005KT M04/M05 A3037 RMK A01 T10411050  RH  093%=      5-min Rain = 0
KVP1 100409Z 25006KT M04/M05 A3037 RMK A01 T10411051  RH  093%=      5-min Rain = 0
KVP1 100410Z 25006KT M04/M05 A3037 RMK A01 T10421051  RH  093%=      5-min Rain = 0
KVP1 100411Z 26006KT M04/M05 A3037 RMK A01 T10431052  RH  093%=      5-min Rain = 0
KVP1 100412Z 26005KT M04/M05 A3037 RMK A01 T10431052  RH  094%=      5-min Rain = 0
KVP1 100413Z 26005KT M04/M05 A3037 RMK A01 T10441053  RH  094%=      5-min Rain = 0
KVP1 100414Z 26006KT M04/M05 A3037 RMK A01 T10441053  RH  094%=      5-min Rain = 0
KVP1 100415Z 25006KT M05/M05 A3037 RMK A01 T10451054  RH  093%=      5-min Rain = 0
KVP1 100416Z 25006KT M05/M05 A3037 RMK A01 T10451054  RH  094%=      5-min Rain = 0
KVP1 100417Z 25006KT M05/M05 A3037 RMK A01 T10461054  RH  094%=      5-min Rain = 0
KVP1 100418Z 25006KT M05/M05 A3037 RMK A01 T10461054  RH  094%=      5-min Rain = 0
KVP1 100419Z 25006KT M05/M05 A3037 RMK A01 T10461054  RH  094%=      5-min Rain = 0
KVP1 100420Z 25006KT M05/M05 A3037 RMK A01 T10461054  RH  094%=      5-min Rain = 0
KVP1 100421Z 25006KT M05/M05 A3037 RMK A01 T10461054  RH  094%=      5-min Rain = 0
KVP1 100422Z 25006KT M05/M06 A3037 RMK A01 T10471055  RH  094%=      5-min Rain = 0
KVP1 100423Z 25006KT M05/M06 A3037 RMK A01 T10471055  RH  094%=      5-min Rain = 0
KVP1 100424Z 26006KT M05/M06 A3037 RMK A01 T10471055  RH  094%=      5-min Rain = 0
KVP1 100425Z 25006KT M05/M06 A3037 RMK A01 T10471055  RH  094%=      5-min Rain = 0
KVP1 100426Z 25006KT M05/M06 A3037 RMK A01 T10471056  RH  094%=      5-min Rain = 0
KVP1 100427Z 25006KT M05/M06 A3037 RMK A01 T10471056  RH  094%=      5-min Rain = 0
KVP1 100428Z 24007KT M05/M06 A3037 RMK A01 T10481056  RH  094%=      5-min Rain = 0
KVP1 100429Z 24007KT M05/M06 A3037 RMK A01 T10481057  RH  094%=      5-min Rain = 0
KVP1 100430Z 24007KT M05/M06 A3037 RMK A01 T10481057  RH  094%=      5-min Rain = 0
KVP1 100431Z 24007KT M05/M06 A3037 RMK A01 T10491058  RH  094%=      5-min Rain = 0
KVP1 100432Z 25007KT M05/M06 A3037 RMK A01 T10491057  RH  094%=      5-min Rain = 0
KVP1 100433Z 24007KT M05/M06 A3037 RMK A01 T10481057  RH  094%=      5-min Rain = 0
KVP1 100434Z 24007KT M05/M06 A3037 RMK A01 T10481056  RH  094%=      5-min Rain = 0
KVP1 100435Z 24007KT M05/M06 A3037 RMK A01 T10481056  RH  094%=      5-min Rain = 0
KVP1 100436Z 25007KT M05/M06 A3037 RMK A01 T10481056  RH  094%=      5-min Rain = 0
KVP1 100437Z 25007KT M05/M06 A3037 RMK A01 T10471056  RH  094%=      5-min Rain = 0
KVP1 100438Z 25007KT M05/M06 A3037 RMK A01 T10471056  RH  094%=      5-min Rain = 0
KVP1 100439Z 25008KT M05/M06 A3037 RMK A01 T10461055  RH  094%=      5-min Rain = 0
KVP1 100440Z 25008KT M05/M05 A3037 RMK A01 T10451053  RH  094%=      5-min Rain = 0
KVP1 100441Z 25008KT M04/M05 A3037 RMK A01 T10441052  RH  094%=      5-min Rain = 0
KVP1 100442Z 25008KT M04/M05 A3037 RMK A01 T10421051  RH  094%=      5-min Rain = 0
KVP1 100443Z 25008KT M04/M05 A3037 RMK A01 T10411049  RH  094%=      5-min Rain = 0
KVP1 100444Z 25008KT M04/M05 A3037 RMK A01 T10401049  RH  093%=      5-min Rain = 0
KVP1 100445Z 25007KT M04/M05 A3037 RMK A01 T10391049  RH  093%=      5-min Rain = 0
KVP1 100446Z 25007KT M04/M05 A3037 RMK A01 T10391049  RH  093%=      5-min Rain = 0
KVP1 100447Z 25007KT M04/M05 A3037 RMK A01 T10381049  RH  092%=      5-min Rain = 0
KVP1 100448Z 25007KT M04/M05 A3037 RMK A01 T10381050  RH  092%=      5-min Rain = 0
KVP1 100449Z 26006KT M04/M05 A3037 RMK A01 T10381050  RH  091%=      5-min Rain = 0
KVP1 100450Z 26006KT M04/M05 A3037 RMK A01 T10381051  RH  091%=      5-min Rain = 0
KVP1 100451Z 26006KT M04/M05 A3037 RMK A01 T10391052  RH  091%=      5-min Rain = 0
KVP1 100452Z 26006KT M04/M05 A3037 RMK A01 T10391053  RH  091%=      5-min Rain = 0
KVP1 100453Z 26005KT M04/M05 A3037 RMK A01 T10401053  RH  090%=      5-min Rain = 0
KVP1 100454Z 26005KT M04/M05 A3037 RMK A01 T10401054  RH  090%=      5-min Rain = 0
KVP1 100455Z 26005KT M04/M05 A3037 RMK A01 T10401054  RH  090%=      5-min Rain = 0
KVP1 100456Z 26005KT M04/M05 A3037 RMK A01 T10401054  RH  090%=      5-min Rain = 0
KVP1 100457Z 26005KT M04/M05 A3037 RMK A01 T10401054  RH  090%=      5-min Rain = 0
KVP1 100458Z 26005KT M04/M06 A3037 RMK A01 T10401055  RH  090%=      5-min Rain = 0
KVP1 100459Z 26005KT M04/M06 A3037 RMK A01 T10401055  RH  090%=      5-min Rain = 0
KVP1 100500Z 26005KT M04/M06 A3037 RMK A01 T10401055  RH  090%=      5-min Rain = 0
KVP1 100501Z 26005KT M04/M06 A3037 RMK A01 T10411055  RH  090%=      5-min Rain = 0
KVP1 100502Z 26006KT M04/M06 A3037 RMK A01 T10411057  RH  089%=      5-min Rain = 0
KVP1 100503Z 26006KT M04/M06 A3037 RMK A01 T10421058  RH  089%=      5-min Rain = 0
KVP1 100504Z 26006KT M04/M06 A3037 RMK A01 T10431059  RH  089%=      5-min Rain = 0
KVP1 100505Z 26006KT M04/M06 A3037 RMK A01 T10441060  RH  088%=      5-min Rain = 0
KVP1 100506Z 26006KT M05/M06 A3037 RMK A01 T10451061  RH  088%=      5-min Rain = 0
KVP1 100507Z 26006KT M05/M06 A3037 RMK A01 T10461062  RH  089%=      5-min Rain = 0
KVP1 100508Z 26006KT M05/M06 A3037 RMK A01 T10461061  RH  089%=      5-min Rain = 0
KVP1 100509Z 26006KT M05/M06 A3037 RMK A01 T10461061  RH  089%=      5-min Rain = 0
KVP1 100510Z 26005KT M05/M06 A3037 RMK A01 T10461061  RH  089%=      5-min Rain = 0
KVP1 100511Z 26005KT M05/M06 A3037 RMK A01 T10471062  RH  089%=      5-min Rain = 0
KVP1 100512Z 27005KT M05/M06 A3037 RMK A01 T10471062  RH  089%=      5-min Rain = 0
KVP1 100513Z 27005KT M05/M06 A3037 RMK A01 T10471061  RH  090%=      5-min Rain = 0
KVP1 100514Z 26005KT M05/M06 A3037 RMK A01 T10471061  RH  090%=      5-min Rain = 0
KVP1 100515Z 26005KT M05/M06 A3037 RMK A01 T10471060  RH  090%=      5-min Rain = 0
KVP1 100516Z 26005KT M05/M06 A3037 RMK A01 T10471060  RH  091%=      5-min Rain = 0
KVP1 100517Z 26005KT M05/M06 A3037 RMK A01 T10461059  RH  091%=      5-min Rain = 0
KVP1 100518Z 26005KT M05/M06 A3037 RMK A01 T10451059  RH  091%=      5-min Rain = 0
KVP1 100519Z 26005KT M05/M06 A3037 RMK A01 T10451058  RH  090%=      5-min Rain = 0
KVP1 100520Z 26005KT M05/M06 A3037 RMK A01 T10451059  RH  090%=      5-min Rain = 0
KVP1 100521Z 26005KT M05/M06 A3037 RMK A01 T10461060  RH  089%=      5-min Rain = 0
KVP1 100522Z 26005KT M05/M06 A3037 RMK A01 T10471062  RH  089%=      5-min Rain = 0
KVP1 100523Z 26005KT M05/M06 A3037 RMK A01 T10471062  RH  089%=      5-min Rain = 0
KVP1 100524Z 26005KT M05/M06 A3037 RMK A01 T10481063  RH  089%=      5-min Rain = 0
KVP1 100525Z 26005KT M05/M06 A3037 RMK A01 T10481064  RH  089%=      5-min Rain = 0
KVP1 100526Z 26005KT M05/M06 A3037 RMK A01 T10491064  RH  089%=      5-min Rain = 0
KVP1 100527Z 26005KT M05/M06 A3037 RMK A01 T10491064  RH  089%=      5-min Rain = 0
KVP1 100528Z 26005KT M05/M06 A3037 RMK A01 T10501064  RH  090%=      5-min Rain = 0
KVP1 100529Z 27004KT M05/M06 A3037 RMK A01 T10501064  RH  090%=      5-min Rain = 0
KVP1 100530Z 27004KT M05/M06 A3037 RMK A01 T10501064  RH  090%=      5-min Rain = 0
KVP1 100531Z 27004KT M05/M06 A3037 RMK A01 T10501064  RH  090%=      5-min Rain = 0
KVP1 100532Z 27004KT M05/M06 A3037 RMK A01 T10501064  RH  090%=      5-min Rain = 0
KVP1 100533Z 27004KT M05/M06 A3036 RMK A01 T10491063  RH  090%=      5-min Rain = 0
KVP1 100534Z 27004KT M05/M06 A3036 RMK A01 T10481062  RH  090%=      5-min Rain = 0
KVP1 100535Z 27004KT M05/M06 A3036 RMK A01 T10481062  RH  090%=      5-min Rain = 0
KVP1 100536Z 28005KT M05/M06 A3036 RMK A01 T10471062  RH  090%=      5-min Rain = 0
KVP1 100537Z 28004KT M05/M06 A3036 RMK A01 T10471062  RH  089%=      5-min Rain = 0
KVP1 100538Z 28005KT M05/M06 A3036 RMK A01 T10471062  RH  089%=      5-min Rain = 0
KVP1 100539Z 28005KT M05/M06 A3036 RMK A01 T10471062  RH  089%=      5-min Rain = 0
KVP1 100540Z 27005KT M05/M06 A3036 RMK A01 T10471062  RH  089%=      5-min Rain = 0
KVP1 100541Z 27005KT M05/M06 A3036 RMK A01 T10471062  RH  089%=      5-min Rain = 0
KVP1 100542Z 27005KT M05/M06 A3036 RMK A01 T10471063  RH  089%=      5-min Rain = 0
KVP1 100543Z 27005KT M05/M06 A3036 RMK A01 T10471063  RH  089%=      5-min Rain = 0
KVP1 100544Z 27005KT M05/M06 A3036 RMK A01 T10471064  RH  088%=      5-min Rain = 0
KVP1 100545Z 27005KT M05/M07 A3036 RMK A01 T10481067  RH  087%=      5-min Rain = 0
KVP1 100546Z 27005KT M05/M07 A3036 RMK A01 T10511070  RH  087%=      5-min Rain = 0
KVP1 100547Z 27005KT M05/M07 A3036 RMK A01 T10521070  RH  087%=      5-min Rain = 0
KVP1 100548Z 27005KT M05/M07 A3036 RMK A01 T10521069  RH  088%=      5-min Rain = 0
KVP1 100549Z 27005KT M05/M07 A3036 RMK A01 T10521068  RH  088%=      5-min Rain = 0
KVP1 100550Z 27005KT M05/M07 A3036 RMK A01 T10531069  RH  088%=      5-min Rain = 0
KVP1 100551Z 27005KT M05/M07 A3036 RMK A01 T10531069  RH  088%=      5-min Rain = 0
KVP1 100552Z 28005KT M05/M07 A3036 RMK A01 T10531069  RH  088%=      5-min Rain = 0
KVP1 100553Z 28005KT M05/M07 A3036 RMK A01 T10531068  RH  089%=      5-min Rain = 0
KVP1 100554Z 28005KT M05/M07 A3036 RMK A01 T10531068  RH  089%=      5-min Rain = 0
KVP1 100555Z 28005KT M05/M07 A3036 RMK A01 T10521068  RH  089%=      5-min Rain = 0
KVP1 100556Z 28005KT M05/M07 A3036 RMK A01 T10521068  RH  088%=      5-min Rain = 0
KVP1 100557Z 28005KT M05/M07 A3036 RMK A01 T10521069  RH  088%=      5-min Rain = 0
KVP1 100558Z 28005KT M05/M07 A3036 RMK A01 T10531070  RH  087%=      5-min Rain = 0
KVP1 100559Z 28005KT M05/M07 A3036 RMK A01 T10541072  RH  087%=      5-min Rain = 0

Page generated in 0.1306 seconds.